Observation data for Amarillo 7 South Southeast on 02/14/2017      Previous  Date       Current Mesonet Observations  Soil Data  Daily Summary Page  Observations in Plain Language
KAM1 140600Z 34010KT 02/00 A3005 RMK A01 T00200004  RH  089%=      5-min Rain = 0
KAM1 140601Z 34009KT 02/00 A3005 RMK A01 T00200004  RH  089%=      5-min Rain = 0
KAM1 140602Z 34011KT 02/00 A3005 RMK A01 T00200004  RH  089%=      5-min Rain = 0
KAM1 140603Z 34009KT 02/01 A3005 RMK A01 T00200005  RH  089%=      5-min Rain = 0
KAM1 140604Z 34008KT 02/01 A3005 RMK A01 T00200005  RH  090%=      5-min Rain = 0
KAM1 140605Z 34010KT 02/01 A3005 RMK A01 T00200005  RH  090%=      5-min Rain = 0
KAM1 140606Z 34009KT 02/01 A3005 RMK A01 T00200005  RH  090%=      5-min Rain = 0
KAM1 140607Z 34008KT 02/01 A3005 RMK A01 T00200005  RH  090%=      5-min Rain = 0
KAM1 140608Z 34008G13KT 02/01 A3005 RMK A01 T00200005  RH  090%=      5-min Rain = 0
KAM1 140609Z 33008KT 02/01 A3005 RMK A01 T00200006  RH  090%=      5-min Rain = 0
KAM1 140610Z 33008KT 02/01 A3005 RMK A01 T00200006  RH  090%=      5-min Rain = 0
KAM1 140611Z 33010KT 02/01 A3005 RMK A01 T00200006  RH  090%=      5-min Rain = 0
KAM1 140612Z 34009KT 02/01 A3005 RMK A01 T00200005  RH  090%=      5-min Rain = 0
KAM1 140613Z 34008KT 02/01 A3006 RMK A01 T00200005  RH  090%=      5-min Rain = 0
KAM1 140614Z 34010KT 02/01 A3006 RMK A01 T00200005  RH  090%=      5-min Rain = 0
KAM1 140615Z 34010KT 02/01 A3005 RMK A01 T00200005  RH  090%=      5-min Rain = 0
KAM1 140616Z 34007KT 02/01 A3006 RMK A01 T00200005  RH  090%=      5-min Rain = 0
KAM1 140617Z 34009KT 02/01 A3006 RMK A01 T00210006  RH  090%=      5-min Rain = 0
KAM1 140618Z 33009KT 02/01 A3006 RMK A01 T00210006  RH  090%=      5-min Rain = 0
KAM1 140619Z 34008KT 02/01 A3006 RMK A01 T00210006  RH  090%=      5-min Rain = 0
KAM1 140620Z 34008KT 02/01 A3006 RMK A01 T00210006  RH  090%=      5-min Rain = 0
KAM1 140621Z 33008KT 02/01 A3006 RMK A01 T00210006  RH  090%=      5-min Rain = 0
KAM1 140622Z 33010KT 02/01 A3006 RMK A01 T00210006  RH  090%=      5-min Rain = 0
KAM1 140623Z 34009KT 02/01 A3006 RMK A01 T00210006  RH  090%=      5-min Rain = 0
KAM1 140624Z 33008KT 02/01 A3006 RMK A01 T00210005  RH  090%=      5-min Rain = 0
KAM1 140625Z 33008KT 02/01 A3006 RMK A01 T00210006  RH  090%=      5-min Rain = 0
KAM1 140626Z 34010KT 02/01 A3006 RMK A01 T00210006  RH  090%=      5-min Rain = 0
KAM1 140627Z 34010KT 02/01 A3006 RMK A01 T00210006  RH  090%=      5-min Rain = 0
KAM1 140628Z 34009KT 02/01 A3006 RMK A01 T00210006  RH  090%=      5-min Rain = 0
KAM1 140629Z 34010KT 02/01 A3005 RMK A01 T00210007  RH  090%=      5-min Rain = 0
KAM1 140630Z 33010KT 02/01 A3005 RMK A01 T00210007  RH  090%=      5-min Rain = 0
KAM1 140631Z 34009KT 02/01 A3005 RMK A01 T00200007  RH  091%=      5-min Rain = 0
KAM1 140632Z 33011KT 02/01 A3005 RMK A01 T00210007  RH  091%=      5-min Rain = 0
KAM1 140633Z 34011KT 02/01 A3005 RMK A01 T00210007  RH  091%=      5-min Rain = 0
KAM1 140634Z 34010KT 02/01 A3005 RMK A01 T00210006  RH  090%=      5-min Rain = 0
KAM1 140635Z 34011KT 02/01 A3005 RMK A01 T00200006  RH  090%=      5-min Rain = 0
KAM1 140636Z 34010KT 02/01 A3005 RMK A01 T00210006  RH  090%=      5-min Rain = 0
KAM1 140637Z 34008KT 02/01 A3005 RMK A01 T00210006  RH  090%=      5-min Rain = 0
KAM1 140638Z 34010KT 02/01 A3005 RMK A01 T00200007  RH  091%=      5-min Rain = 0
KAM1 140639Z 35012KT 02/01 A3005 RMK A01 T00200006  RH  090%=      5-min Rain = 0
KAM1 140640Z 35011KT 02/01 A3005 RMK A01 T00210006  RH  090%=      5-min Rain = 0
KAM1 140641Z 35010KT 02/01 A3005 RMK A01 T00210005  RH  090%=      5-min Rain = 0
KAM1 140642Z 34009KT 02/01 A3005 RMK A01 T00200005  RH  090%=      5-min Rain = 0
KAM1 140643Z 34009KT 02/01 A3005 RMK A01 T00200006  RH  090%=      5-min Rain = 0
KAM1 140644Z 35009KT 02/01 A3005 RMK A01 T00210006  RH  090%=      5-min Rain = 0
KAM1 140645Z 35011KT 02/01 A3005 RMK A01 T00200006  RH  090%=      5-min Rain = 0
KAM1 140646Z 35010KT 02/01 A3005 RMK A01 T00210006  RH  090%=      5-min Rain = 0
KAM1 140647Z 34010KT 02/01 A3005 RMK A01 T00210006  RH  090%=      5-min Rain = 0
KAM1 140648Z 34008KT 02/01 A3005 RMK A01 T00210006  RH  090%=      5-min Rain = 0
KAM1 140649Z 34008KT 02/01 A3005 RMK A01 T00210007  RH  091%=      5-min Rain = 0
KAM1 140650Z 35010KT 02/01 A3005 RMK A01 T00210007  RH  091%=      5-min Rain = 0
KAM1 140651Z 35010KT 02/01 A3005 RMK A01 T00210007  RH  091%=      5-min Rain = 0
KAM1 140652Z 34008KT 02/01 A3005 RMK A01 T00210006  RH  090%=      5-min Rain = 0
KAM1 140653Z 34009KT 02/01 A3005 RMK A01 T00210007  RH  090%=      5-min Rain = 0
KAM1 140654Z 34009KT 02/01 A3005 RMK A01 T00200006  RH  090%=      5-min Rain = 0
KAM1 140655Z 34011KT 02/01 A3005 RMK A01 T00210007  RH  090%=      5-min Rain = 0
KAM1 140656Z 34009KT 02/01 A3005 RMK A01 T00200006  RH  090%=      5-min Rain = 0
KAM1 140657Z 34009KT 02/01 A3005 RMK A01 T00210006  RH  090%=      5-min Rain = 0
KAM1 140658Z 34010KT 02/01 A3005 RMK A01 T00210007  RH  090%=      5-min Rain = 0
KAM1 140659Z 34009KT 02/01 A3005 RMK A01 T00210007  RH  090%=      5-min Rain = 0
KAM1 140700Z 34009KT 02/01 A3005 RMK A01 T00210007  RH  090%=      5-min Rain = 0
KAM1 140701Z 34011KT 02/01 A3006 RMK A01 T00210007  RH  090%=      5-min Rain = 0
KAM1 140702Z 34009KT 02/01 A3006 RMK A01 T00210007  RH  090%=      5-min Rain = 0
KAM1 140703Z 35010KT 02/01 A3006 RMK A01 T00210007  RH  090%=      5-min Rain = 0
KAM1 140704Z 34010KT 02/01 A3006 RMK A01 T00210007  RH  090%=      5-min Rain = 0
KAM1 140705Z 35008KT 02/01 A3005 RMK A01 T00210007  RH  090%=      5-min Rain = 0
KAM1 140706Z 34009KT 02/01 A3005 RMK A01 T00210007  RH  090%=      5-min Rain = 0
KAM1 140707Z 34010KT 02/01 A3005 RMK A01 T00210007  RH  091%=      5-min Rain = 0
KAM1 140708Z 34010KT 02/01 A3005 RMK A01 T00210007  RH  091%=      5-min Rain = 0
KAM1 140709Z 34012KT 02/01 A3005 RMK A01 T00210007  RH  090%=      5-min Rain = 0
KAM1 140710Z 35011KT 02/01 A3005 RMK A01 T00210007  RH  090%=      5-min Rain = 0
KAM1 140711Z 35010KT 02/01 A3005 RMK A01 T00210007  RH  090%=      5-min Rain = 0
KAM1 140712Z 35010KT 02/01 A3005 RMK A01 T00220007  RH  090%=      5-min Rain = 0
KAM1 140713Z 35009KT 02/01 A3005 RMK A01 T00220007  RH  090%=      5-min Rain = 0
KAM1 140714Z 34009KT 02/01 A3005 RMK A01 T00220007  RH  090%=      5-min Rain = 0
KAM1 140715Z 35009KT 02/01 A3005 RMK A01 T00220008  RH  091%=      5-min Rain = 0
KAM1 140716Z 35011KT 02/01 A3005 RMK A01 T00220008  RH  091%=      5-min Rain = 0
KAM1 140717Z 35008KT 02/01 A3005 RMK A01 T00220007  RH  090%=      5-min Rain = 0
KAM1 140718Z 35010KT 02/01 A3005 RMK A01 T00210007  RH  090%=      5-min Rain = 0
KAM1 140719Z 35008KT 02/01 A3004 RMK A01 T00220007  RH  090%=      5-min Rain = 0
KAM1 140720Z 35009KT 02/01 A3004 RMK A01 T00210007  RH  090%=      5-min Rain = 0
KAM1 140721Z 35010KT 02/01 A3005 RMK A01 T00210006  RH  090%=      5-min Rain = 0
KAM1 140722Z 35009KT 02/01 A3004 RMK A01 T00210006  RH  090%=      5-min Rain = 0
KAM1 140723Z 36010KT 02/01 A3005 RMK A01 T00210006  RH  089%=      5-min Rain = 0
KAM1 140724Z 35009KT 02/01 A3005 RMK A01 T00220005  RH  089%=      5-min Rain = 0
KAM1 140725Z 35007KT 02/01 A3005 RMK A01 T00220005  RH  089%=      5-min Rain = 0
KAM1 140726Z 35008KT 02/01 A3005 RMK A01 T00220006  RH  089%=      5-min Rain = 0
KAM1 140727Z 34009KT 02/01 A3005 RMK A01 T00220006  RH  089%=      5-min Rain = 0
KAM1 140728Z 35011KT 02/01 A3005 RMK A01 T00220006  RH  089%=      5-min Rain = 0
KAM1 140729Z 34008KT 02/01 A3005 RMK A01 T00220005  RH  089%=      5-min Rain = 0
KAM1 140730Z 34010KT 02/01 A3005 RMK A01 T00220006  RH  089%=      5-min Rain = 0
KAM1 140731Z 34010KT 02/01 A3005 RMK A01 T00220006  RH  089%=      5-min Rain = 0
KAM1 140732Z 34010KT 02/01 A3005 RMK A01 T00220005  RH  089%=      5-min Rain = 0
KAM1 140733Z 34009KT 02/01 A3005 RMK A01 T00220006  RH  089%=      5-min Rain = 0
KAM1 140734Z 34009KT 02/01 A3005 RMK A01 T00220006  RH  089%=      5-min Rain = 0
KAM1 140735Z 34009KT 02/01 A3005 RMK A01 T00220006  RH  089%=      5-min Rain = 0
KAM1 140736Z 34008KT 02/01 A3005 RMK A01 T00220006  RH  089%=      5-min Rain = 0
KAM1 140737Z 33010KT 02/01 A3005 RMK A01 T00220006  RH  089%=      5-min Rain = 0
KAM1 140738Z 34009KT 02/01 A3005 RMK A01 T00220006  RH  089%=      5-min Rain = 0
KAM1 140739Z 33009KT 02/01 A3005 RMK A01 T00220006  RH  089%=      5-min Rain = 0
KAM1 140740Z 33010KT 02/01 A3006 RMK A01 T00220006  RH  089%=      5-min Rain = 0
KAM1 140741Z 33010KT 02/01 A3006 RMK A01 T00220006  RH  089%=      5-min Rain = 0
KAM1 140742Z 33010KT 02/01 A3006 RMK A01 T00230006  RH  089%=      5-min Rain = 0
KAM1 140743Z 34008KT 02/01 A3006 RMK A01 T00230006  RH  089%=      5-min Rain = 0
KAM1 140744Z 34008KT 02/01 A3006 RMK A01 T00230006  RH  089%=      5-min Rain = 0
KAM1 140745Z 34007KT 02/01 A3005 RMK A01 T00230006  RH  089%=      5-min Rain = 0
KAM1 140746Z 34008KT 02/01 A3005 RMK A01 T00230007  RH  089%=      5-min Rain = 0
KAM1 140747Z 35008KT 02/01 A3005 RMK A01 T00230007  RH  089%=      5-min Rain = 0
KAM1 140748Z 34009KT 02/01 A3005 RMK A01 T00230007  RH  089%=      5-min Rain = 0
KAM1 140749Z 34009KT 02/01 A3005 RMK A01 T00230007  RH  089%=      5-min Rain = 0
KAM1 140750Z 34008KT 02/01 A3005 RMK A01 T00230007  RH  089%=      5-min Rain = 0
KAM1 140751Z 34009KT 02/01 A3005 RMK A01 T00230007  RH  089%=      5-min Rain = 0
KAM1 140752Z 35009KT 02/01 A3005 RMK A01 T00230007  RH  089%=      5-min Rain = 0
KAM1 140753Z 34007KT 02/01 A3005 RMK A01 T00230007  RH  089%=      5-min Rain = 0
KAM1 140754Z 34007KT 02/01 A3005 RMK A01 T00230008  RH  089%=      5-min Rain = 0
KAM1 140755Z 34009KT 02/01 A3005 RMK A01 T00230008  RH  089%=      5-min Rain = 0
KAM1 140756Z 35009KT 02/01 A3005 RMK A01 T00230007  RH  089%=      5-min Rain = 0
KAM1 140757Z 34008KT 02/01 A3005 RMK A01 T00230007  RH  089%=      5-min Rain = 0
KAM1 140758Z 35009KT 02/01 A3005 RMK A01 T00230007  RH  089%=      5-min Rain = 0
KAM1 140759Z 35010KT 02/01 A3005 RMK A01 T00230006  RH  088%=      5-min Rain = 0
KAM1 140800Z 36008KT 02/01 A3005 RMK A01 T00240006  RH  088%=      5-min Rain = 0
KAM1 140801Z 35008KT 02/01 A3005 RMK A01 T00240006  RH  088%=      5-min Rain = 0
KAM1 140802Z 36008KT 02/01 A3005 RMK A01 T00240006  RH  088%=      5-min Rain = 0
KAM1 140803Z 36010KT 02/01 A3005 RMK A01 T00240006  RH  088%=      5-min Rain = 0
KAM1 140804Z 35009KT 02/01 A3005 RMK A01 T00240006  RH  088%=      5-min Rain = 0
KAM1 140805Z 36009KT 02/01 A3005 RMK A01 T00240006  RH  088%=      5-min Rain = 0
KAM1 140806Z 35008KT 02/01 A3005 RMK A01 T00240006  RH  088%=      5-min Rain = 0
KAM1 140807Z 35009KT 02/01 A3005 RMK A01 T00240007  RH  088%=      5-min Rain = 0
KAM1 140808Z 35007KT 02/01 A3005 RMK A01 T00240007  RH  089%=      5-min Rain = 0
KAM1 140809Z 35009KT 02/01 A3005 RMK A01 T00240008  RH  089%=      5-min Rain = 0
KAM1 140810Z 34008KT 02/01 A3005 RMK A01 T00240008  RH  089%=      5-min Rain = 0
KAM1 140811Z 34010KT 02/01 A3005 RMK A01 T00240008  RH  089%=      5-min Rain = 0
KAM1 140812Z 34009KT 02/01 A3005 RMK A01 T00240008  RH  089%=      5-min Rain = 0
KAM1 140813Z 34008KT 02/01 A3005 RMK A01 T00240008  RH  089%=      5-min Rain = 0
KAM1 140814Z 34009KT 02/01 A3005 RMK A01 T00240008  RH  089%=      5-min Rain = 0
KAM1 140815Z 34008KT 02/01 A3005 RMK A01 T00240009  RH  090%=      5-min Rain = 0
KAM1 140816Z 34008KT 02/01 A3005 RMK A01 T00240009  RH  090%=      5-min Rain = 0
KAM1 140817Z 34009KT 02/01 A3005 RMK A01 T00240009  RH  090%=      5-min Rain = 0
KAM1 140818Z 36010KT 02/01 A3005 RMK A01 T00240009  RH  090%=      5-min Rain = 0
KAM1 140819Z 34006KT 02/01 A3005 RMK A01 T00240009  RH  090%=      5-min Rain = 0
KAM1 140820Z 34007KT 02/01 A3005 RMK A01 T00240009  RH  090%=      5-min Rain = 0
KAM1 140821Z 35007KT 02/01 A3005 RMK A01 T00240009  RH  090%=      5-min Rain = 0
KAM1 140822Z 35007KT 02/01 A3005 RMK A01 T00240009  RH  090%=      5-min Rain = 0
KAM1 140823Z 35007KT 02/01 A3005 RMK A01 T00240009  RH  090%=      5-min Rain = 0
KAM1 140824Z 35006KT 02/01 A3005 RMK A01 T00240009  RH  090%=      5-min Rain = 0
KAM1 140825Z 34006KT 02/01 A3005 RMK A01 T00240009  RH  090%=      5-min Rain = 0
KAM1 140826Z 34007KT 02/01 A3005 RMK A01 T00240009  RH  090%=      5-min Rain = 0
KAM1 140827Z 34007KT 02/01 A3005 RMK A01 T00240010  RH  090%=      5-min Rain = 0
KAM1 140828Z 34006KT 02/01 A3005 RMK A01 T00240010  RH  090%=      5-min Rain = 0
KAM1 140829Z 34008KT 02/01 A3005 RMK A01 T00240010  RH  090%=      5-min Rain = 0
KAM1 140830Z 35009KT 02/01 A3005 RMK A01 T00240010  RH  090%=      5-min Rain = 0
KAM1 140831Z 35009KT 02/01 A3004 RMK A01 T00240009  RH  090%=      5-min Rain = 0
KAM1 140832Z 35008KT 02/01 A3004 RMK A01 T00240009  RH  090%=      5-min Rain = 0
KAM1 140833Z 35007KT 02/01 A3004 RMK A01 T00240009  RH  090%=      5-min Rain = 0
KAM1 140834Z 35007KT 02/01 A3004 RMK A01 T00240009  RH  090%=      5-min Rain = 0
KAM1 140835Z 35007KT 02/01 A3004 RMK A01 T00240009  RH  090%=      5-min Rain = 0
KAM1 140836Z 35007KT 02/01 A3004 RMK A01 T00240010  RH  090%=      5-min Rain = 0
KAM1 140837Z 35006KT 02/01 A3004 RMK A01 T00240009  RH  090%=      5-min Rain = 0
KAM1 140838Z 35006KT 02/01 A3004 RMK A01 T00240009  RH  090%=      5-min Rain = 0
KAM1 140839Z 35006KT 02/01 A3004 RMK A01 T00240009  RH  090%=      5-min Rain = 0
KAM1 140840Z 35009KT 02/01 A3004 RMK A01 T00240010  RH  090%=      5-min Rain = 0
KAM1 140841Z 35007KT 02/01 A3004 RMK A01 T00240009  RH  090%=      5-min Rain = 0
KAM1 140842Z 35008KT 02/01 A3004 RMK A01 T00240009  RH  090%=      5-min Rain = 0
KAM1 140843Z 35008KT 03/01 A3004 RMK A01 T00250009  RH  090%=      5-min Rain = 0
KAM1 140844Z 35006KT 02/01 A3004 RMK A01 T00240009  RH  089%=      5-min Rain = 0
KAM1 140845Z 35006KT 03/01 A3004 RMK A01 T00250009  RH  090%=      5-min Rain = 0
KAM1 140846Z 35007KT 03/01 A3004 RMK A01 T00250010  RH  090%=      5-min Rain = 0
KAM1 140847Z 34008KT 03/01 A3004 RMK A01 T00250009  RH  090%=      5-min Rain = 0
KAM1 140848Z 34008KT 02/01 A3004 RMK A01 T00240009  RH  090%=      5-min Rain = 0
KAM1 140849Z 35008KT 02/01 A3004 RMK A01 T00240009  RH  090%=      5-min Rain = 0
KAM1 140850Z 34008KT 02/01 A3004 RMK A01 T00240009  RH  090%=      5-min Rain = 0
KAM1 140851Z 35008KT 02/01 A3004 RMK A01 T00240009  RH  090%=      5-min Rain = 0
KAM1 140852Z 34007KT 02/01 A3004 RMK A01 T00240009  RH  090%=      5-min Rain = 0
KAM1 140853Z 34007KT 02/01 A3004 RMK A01 T00240009  RH  090%=      5-min Rain = 0
KAM1 140854Z 35007KT 02/01 A3004 RMK A01 T00240009  RH  090%=      5-min Rain = 0
KAM1 140855Z 34008KT 02/01 A3004 RMK A01 T00240009  RH  090%=      5-min Rain = 0
KAM1 140856Z 34007KT 02/01 A3004 RMK A01 T00240009  RH  090%=      5-min Rain = 0
KAM1 140857Z 34008KT 02/01 A3004 RMK A01 T00240009  RH  090%=      5-min Rain = 0
KAM1 140858Z 34006KT 02/01 A3004 RMK A01 T00240009  RH  090%=      5-min Rain = 0
KAM1 140859Z 35007KT 02/01 A3004 RMK A01 T00240009  RH  090%=      5-min Rain = 0
KAM1 140900Z 34008KT 02/01 A3004 RMK A01 T00240009  RH  090%=      5-min Rain = 0
KAM1 140901Z 34009KT 02/01 A3004 RMK A01 T00240009  RH  090%=      5-min Rain = 0
KAM1 140902Z 34010KT 02/01 A3004 RMK A01 T00240009  RH  090%=      5-min Rain = 0
KAM1 140903Z 35010KT 02/01 A3005 RMK A01 T00240009  RH  089%=      5-min Rain = 0
KAM1 140904Z 34010KT 03/01 A3005 RMK A01 T00250009  RH  089%=      5-min Rain = 0
KAM1 140905Z 34011KT 03/01 A3005 RMK A01 T00250009  RH  089%=      5-min Rain = 0
KAM1 140906Z 34010KT 03/01 A3005 RMK A01 T00250009  RH  089%=      5-min Rain = 0
KAM1 140907Z 35011KT 03/01 A3005 RMK A01 T00250009  RH  089%=      5-min Rain = 0
KAM1 140908Z 34008KT 03/01 A3005 RMK A01 T00250008  RH  089%=      5-min Rain = 0
KAM1 140909Z 34008KT 03/01 A3005 RMK A01 T00250008  RH  089%=      5-min Rain = 0
KAM1 140910Z 34009KT 03/01 A3005 RMK A01 T00250009  RH  089%=      5-min Rain = 0
KAM1 140911Z 34011KT 03/01 A3005 RMK A01 T00250009  RH  089%=      5-min Rain = 0
KAM1 140912Z 35009KT 03/01 A3005 RMK A01 T00250009  RH  089%=      5-min Rain = 0
KAM1 140913Z 35008KT 03/01 A3005 RMK A01 T00250009  RH  089%=      5-min Rain = 0
KAM1 140914Z 35009KT 03/01 A3005 RMK A01 T00250009  RH  089%=      5-min Rain = 0
KAM1 140915Z 35009KT 03/01 A3005 RMK A01 T00250009  RH  089%=      5-min Rain = 0
KAM1 140916Z 35007KT 03/01 A3005 RMK A01 T00250009  RH  089%=      5-min Rain = 0
KAM1 140917Z 35009KT 03/01 A3005 RMK A01 T00250009  RH  089%=      5-min Rain = 0
KAM1 140918Z 35007KT 03/01 A3005 RMK A01 T00250009  RH  089%=      5-min Rain = 0
KAM1 140919Z 35010KT 03/01 A3005 RMK A01 T00250009  RH  089%=      5-min Rain = 0
KAM1 140920Z 35008KT 03/01 A3005 RMK A01 T00250009  RH  089%=      5-min Rain = 0
KAM1 140921Z 35008KT 03/01 A3005 RMK A01 T00250009  RH  089%=      5-min Rain = 0
KAM1 140922Z 35007KT 03/01 A3005 RMK A01 T00250010  RH  089%=      5-min Rain = 0
KAM1 140923Z 35007KT 03/01 A3005 RMK A01 T00250010  RH  090%=      5-min Rain = 0
KAM1 140924Z 35008KT 03/01 A3005 RMK A01 T00250010  RH  090%=      5-min Rain = 0
KAM1 140925Z 35008KT 03/01 A3005 RMK A01 T00250010  RH  090%=      5-min Rain = 0
KAM1 140926Z 35009KT 03/01 A3005 RMK A01 T00250010  RH  090%=      5-min Rain = 0
KAM1 140927Z 36009KT 03/01 A3005 RMK A01 T00250010  RH  089%=      5-min Rain = 0
KAM1 140928Z 36007KT 03/01 A3005 RMK A01 T00250009  RH  089%=      5-min Rain = 0
KAM1 140929Z 36008KT 03/01 A3005 RMK A01 T00250009  RH  089%=      5-min Rain = 0
KAM1 140930Z 36008KT 03/01 A3005 RMK A01 T00250010  RH  089%=      5-min Rain = 0
KAM1 140931Z 35008KT 03/01 A3005 RMK A01 T00250010  RH  089%=      5-min Rain = 0
KAM1 140932Z 36007KT 03/01 A3005 RMK A01 T00250009  RH  089%=      5-min Rain = 0
KAM1 140933Z 35010KT 03/01 A3005 RMK A01 T00250009  RH  089%=      5-min Rain = 0
KAM1 140934Z 36011KT 03/01 A3005 RMK A01 T00250009  RH  089%=      5-min Rain = 0
KAM1 140935Z 36011KT 03/01 A3004 RMK A01 T00250009  RH  089%=      5-min Rain = 0
KAM1 140936Z 00010KT 03/01 A3004 RMK A01 T00250009  RH  089%=      5-min Rain = 0
KAM1 140937Z 00007KT 03/01 A3004 RMK A01 T00250009  RH  089%=      5-min Rain = 0
KAM1 140938Z 36006KT 03/01 A3004 RMK A01 T00250009  RH  089%=      5-min Rain = 0
KAM1 140939Z 36007KT 03/01 A3005 RMK A01 T00250009  RH  089%=      5-min Rain = 0
KAM1 140940Z 35009KT 03/01 A3005 RMK A01 T00250010  RH  089%=      5-min Rain = 0
KAM1 140941Z 35010KT 03/01 A3004 RMK A01 T00250009  RH  089%=      5-min Rain = 0
KAM1 140942Z 01008KT 03/01 A3004 RMK A01 T00250009  RH  089%=      5-min Rain = 0
KAM1 140943Z 36008KT 03/01 A3004 RMK A01 T00250009  RH  089%=      5-min Rain = 0
KAM1 140944Z 36007KT 03/01 A3004 RMK A01 T00250009  RH  089%=      5-min Rain = 0
KAM1 140945Z 36009KT 03/01 A3004 RMK A01 T00250009  RH  090%=      5-min Rain = 0
KAM1 140946Z 00013KT 03/01 A3004 RMK A01 T00250009  RH  090%=      5-min Rain = 0
KAM1 140947Z 00011KT 03/01 A3004 RMK A01 T00250009  RH  089%=      5-min Rain = 0
KAM1 140948Z 00010KT 03/01 A3004 RMK A01 T00250009  RH  089%=      5-min Rain = 0
KAM1 140949Z 36010KT 03/01 A3004 RMK A01 T00250009  RH  089%=      5-min Rain = 0
KAM1 140950Z 01012KT 03/01 A3004 RMK A01 T00250009  RH  089%=      5-min Rain = 0
KAM1 140951Z 00012KT 03/01 A3004 RMK A01 T00250009  RH  090%=      5-min Rain = 0
KAM1 140952Z 00013KT 03/01 A3004 RMK A01 T00250009  RH  090%=      5-min Rain = 0
KAM1 140953Z 00012KT 03/01 A3004 RMK A01 T00250009  RH  089%=      5-min Rain = 0
KAM1 140954Z 00011KT 03/01 A3004 RMK A01 T00250009  RH  089%=      5-min Rain = 0
KAM1 140955Z 01009KT 03/01 A3004 RMK A01 T00250009  RH  090%=      5-min Rain = 0
KAM1 140956Z 00009KT 03/01 A3004 RMK A01 T00250010  RH  090%=      5-min Rain = 0
KAM1 140957Z 00008KT 02/01 A3004 RMK A01 T00240010  RH  090%=      5-min Rain = 0
KAM1 140958Z 01010KT 02/01 A3004 RMK A01 T00240010  RH  091%=      5-min Rain = 0
KAM1 140959Z 01010KT 02/01 A3004 RMK A01 T00240010  RH  091%=      5-min Rain = 0
KAM1 141000Z 01009KT 02/01 A3004 RMK A01 T00240010  RH  091%=      5-min Rain = 0
KAM1 141001Z 01011KT 02/01 A3004 RMK A01 T00240011  RH  091%=      5-min Rain = 0
KAM1 141002Z 01010KT 02/01 A3004 RMK A01 T00240011  RH  091%=      5-min Rain = 0
KAM1 141003Z 01010KT 02/01 A3004 RMK A01 T00230011  RH  091%=      5-min Rain = 0
KAM1 141004Z 01010KT 02/01 A3004 RMK A01 T00230011  RH  092%=      5-min Rain = 0
KAM1 141005Z 01009KT 02/01 A3004 RMK A01 T00230011  RH  092%=      5-min Rain = 0
KAM1 141006Z 01009KT 02/01 A3004 RMK A01 T00230011  RH  092%=      5-min Rain = 0
KAM1 141007Z 01009KT 02/01 A3004 RMK A01 T00230012  RH  092%=      5-min Rain = 0
KAM1 141008Z 00009KT 02/01 A3004 RMK A01 T00230012  RH  092%=      5-min Rain = 0
KAM1 141009Z 01011KT 02/01 A3004 RMK A01 T00220012  RH  093%=      5-min Rain = 0
KAM1 141010Z 01009KT 02/01 A3004 RMK A01 T00220012  RH  093%=      5-min Rain = 0
KAM1 141011Z 01011KT 02/01 A3004 RMK A01 T00220012  RH  093%=      5-min Rain = 0
KAM1 141012Z 00010KT 02/01 A3004 RMK A01 T00220012  RH  093%=      5-min Rain = 0
KAM1 141013Z 01008KT 02/01 A3004 RMK A01 T00220012  RH  093%=      5-min Rain = 0
KAM1 141014Z 01009KT 02/01 A3004 RMK A01 T00220012  RH  093%=      5-min Rain = 0
KAM1 141015Z 01010KT 02/01 A3004 RMK A01 T00220012  RH  093%=      5-min Rain = 0
KAM1 141016Z 01010KT 02/01 A3004 RMK A01 T00220013  RH  094%=      5-min Rain = 0
KAM1 141017Z 01009KT 02/01 A3004 RMK A01 T00220013  RH  094%=      5-min Rain = 0
KAM1 141018Z 01007KT 02/01 A3004 RMK A01 T00220013  RH  094%=      5-min Rain = 0
KAM1 141019Z 01008KT 02/01 A3004 RMK A01 T00220013  RH  094%=      5-min Rain = 0
KAM1 141020Z 01007KT 02/01 A3004 RMK A01 T00220013  RH  094%=      5-min Rain = 0
KAM1 141021Z 01009KT 02/01 A3004 RMK A01 T00220013  RH  094%=      5-min Rain = 0
KAM1 141022Z 02007KT 02/01 A3004 RMK A01 T00210013  RH  094%=      5-min Rain = 0
KAM1 141023Z 01006KT 02/01 A3004 RMK A01 T00210013  RH  095%=      5-min Rain = 0
KAM1 141024Z 01009KT 02/01 A3004 RMK A01 T00210013  RH  095%=      5-min Rain = 0
KAM1 141025Z 00010KT 02/01 A3004 RMK A01 T00210013  RH  095%=      5-min Rain = 0
KAM1 141026Z 00010KT 02/01 A3004 RMK A01 T00200012  RH  094%=      5-min Rain = 0
KAM1 141027Z 01009KT 02/01 A3004 RMK A01 T00210012  RH  094%=      5-min Rain = 0
KAM1 141028Z 00010KT 02/01 A3004 RMK A01 T00200012  RH  094%=      5-min Rain = 0
KAM1 141029Z 00009KT 02/01 A3004 RMK A01 T00200012  RH  094%=      5-min Rain = 0
KAM1 141030Z 01008KT 02/01 A3004 RMK A01 T00200012  RH  094%=      5-min Rain = 0
KAM1 141031Z 00011KT 02/01 A3004 RMK A01 T00200012  RH  094%=      5-min Rain = 0
KAM1 141032Z 01011KT 02/01 A3004 RMK A01 T00200011  RH  094%=      5-min Rain = 0
KAM1 141033Z 01011KT 02/01 A3004 RMK A01 T00200011  RH  094%=      5-min Rain = 0
KAM1 141034Z 01012KT 02/01 A3004 RMK A01 T00200011  RH  094%=      5-min Rain = 0
KAM1 141035Z 00010KT 02/01 A3004 RMK A01 T00200011  RH  094%=      5-min Rain = 0
KAM1 141036Z 00010KT 02/01 A3004 RMK A01 T00200011  RH  094%=      5-min Rain = 0
KAM1 141037Z 01010KT 02/01 A3004 RMK A01 T00200011  RH  094%=      5-min Rain = 0
KAM1 141038Z 01008KT 02/01 A3004 RMK A01 T00200012  RH  094%=      5-min Rain = 0
KAM1 141039Z 01007KT 02/01 A3004 RMK A01 T00200012  RH  094%=      5-min Rain = 0
KAM1 141040Z 01008KT 02/01 A3004 RMK A01 T00200012  RH  094%=      5-min Rain = 0
KAM1 141041Z 01007KT 02/01 A3004 RMK A01 T00200012  RH  095%=      5-min Rain = 0
KAM1 141042Z 00007KT 02/01 A3004 RMK A01 T00200012  RH  095%=      5-min Rain = 0
KAM1 141043Z 00009KT 02/01 A3004 RMK A01 T00200012  RH  095%=      5-min Rain = 0
KAM1 141044Z 00010KT 02/01 A3004 RMK A01 T00200013  RH  095%=      5-min Rain = 0
KAM1 141045Z 01011KT 02/01 A3004 RMK A01 T00200013  RH  095%=      5-min Rain = 0
KAM1 141046Z 00010KT 02/01 A3004 RMK A01 T00200013  RH  095%=      5-min Rain = 0
KAM1 141047Z 00011KT 02/01 A3004 RMK A01 T00200013  RH  095%=      5-min Rain = 0
KAM1 141048Z 01011KT 02/01 A3004 RMK A01 T00190012  RH  095%=      5-min Rain = 0
KAM1 141049Z 00011KT 02/01 A3004 RMK A01 T00200012  RH  095%=      5-min Rain = 0
KAM1 141050Z 01011KT 02/01 A3004 RMK A01 T00200012  RH  095%=      5-min Rain = 0
KAM1 141051Z 01010KT 02/01 A3004 RMK A01 T00200012  RH  094%=      5-min Rain = 0
KAM1 141052Z 01011KT 02/01 A3005 RMK A01 T00200012  RH  094%=      5-min Rain = 0
KAM1 141053Z 01010KT 02/01 A3005 RMK A01 T00190011  RH  094%=      5-min Rain = 0
KAM1 141054Z 01011KT 02/01 A3005 RMK A01 T00190011  RH  094%=      5-min Rain = 0
KAM1 141055Z 02012KT 02/01 A3004 RMK A01 T00190011  RH  094%=      5-min Rain = 0
KAM1 141056Z 01013KT 02/01 A3004 RMK A01 T00190011  RH  094%=      5-min Rain = 0
KAM1 141057Z 02011KT 02/01 A3004 RMK A01 T00190010  RH  094%=      5-min Rain = 0
KAM1 141058Z 02009KT 02/01 A3004 RMK A01 T00190010  RH  094%=      5-min Rain = 0
KAM1 141059Z 01009KT 02/01 A3004 RMK A01 T00190011  RH  094%=      5-min Rain = 0
KAM1 141100Z 01011KT 02/01 A3004 RMK A01 T00190010  RH  094%=      5-min Rain = 0
KAM1 141101Z 01009KT 02/01 A3004 RMK A01 T00190011  RH  094%=      5-min Rain = 0
KAM1 141102Z 01009KT 02/01 A3004 RMK A01 T00190010  RH  094%=      5-min Rain = 0
KAM1 141103Z 01011KT 02/01 A3004 RMK A01 T00180010  RH  094%=      5-min Rain = 0
KAM1 141104Z 01010KT 02/01 A3004 RMK A01 T00180010  RH  094%=      5-min Rain = 0
KAM1 141105Z 01010KT 02/01 A3004 RMK A01 T00180010  RH  094%=      5-min Rain = 0
KAM1 141106Z 01009KT 02/01 A3004 RMK A01 T00180010  RH  094%=      5-min Rain = 0
KAM1 141107Z 01011KT 02/01 A3004 RMK A01 T00180010  RH  094%=      5-min Rain = 0
KAM1 141108Z 01012KT 02/01 A3005 RMK A01 T00180010  RH  094%=      5-min Rain = 0
KAM1 141109Z 02011KT 02/01 A3005 RMK A01 T00180010  RH  094%=      5-min Rain = 0
KAM1 141110Z 01009KT 02/01 A3005 RMK A01 T00170009  RH  094%=      5-min Rain = 0
KAM1 141111Z 01012KT 02/01 A3005 RMK A01 T00170009  RH  094%=      5-min Rain = 0
KAM1 141112Z 01010KT 02/01 A3005 RMK A01 T00170009  RH  094%=      5-min Rain = 0
KAM1 141113Z 01011KT 02/01 A3005 RMK A01 T00170009  RH  094%=      5-min Rain = 0
KAM1 141114Z 01011KT 02/01 A3005 RMK A01 T00170009  RH  094%=      5-min Rain = 0
KAM1 141115Z 01012KT 02/01 A3005 RMK A01 T00170008  RH  094%=      5-min Rain = 0
KAM1 141116Z 01011KT 02/01 A3005 RMK A01 T00170008  RH  094%=      5-min Rain = 0
KAM1 141117Z 01012KT 02/01 A3005 RMK A01 T00170009  RH  094%=      5-min Rain = 0
KAM1 141118Z 01012KT 02/01 A3005 RMK A01 T00170008  RH  094%=      5-min Rain = 0
KAM1 141119Z 01010KT 02/01 A3005 RMK A01 T00160008  RH  094%=      5-min Rain = 0
KAM1 141120Z 01009KT 02/01 A3005 RMK A01 T00160008  RH  094%=      5-min Rain = 0
KAM1 141121Z 01010KT 02/01 A3005 RMK A01 T00160008  RH  094%=      5-min Rain = 0
KAM1 141122Z 01013KT 02/01 A3005 RMK A01 T00160008  RH  094%=      5-min Rain = 0
KAM1 141123Z 01011KT 02/01 A3005 RMK A01 T00160008  RH  094%=      5-min Rain = 0
KAM1 141124Z 01012KT 02/01 A3005 RMK A01 T00160008  RH  094%=      5-min Rain = 0
KAM1 141125Z 01010KT 02/01 A3005 RMK A01 T00160008  RH  094%=      5-min Rain = 0
KAM1 141126Z 01010KT 02/01 A3005 RMK A01 T00160008  RH  094%=      5-min Rain = 0
KAM1 141127Z 01011KT 02/01 A3005 RMK A01 T00160008  RH  094%=      5-min Rain = 0
KAM1 141128Z 01011KT 02/01 A3005 RMK A01 T00160008  RH  094%=      5-min Rain = 0
KAM1 141129Z 01010KT 02/01 A3005 RMK A01 T00160008  RH  094%=      5-min Rain = 0
KAM1 141130Z 01010KT 02/01 A3005 RMK A01 T00160008  RH  094%=      5-min Rain = 0
KAM1 141131Z 01009KT 02/01 A3005 RMK A01 T00160008  RH  095%=      5-min Rain = 0
KAM1 141132Z 00009KT 02/01 A3005 RMK A01 T00160008  RH  095%=      5-min Rain = 0
KAM1 141133Z 01011KT 02/01 A3005 RMK A01 T00150008  RH  095%=      5-min Rain = 0
KAM1 141134Z 01011KT 02/01 A3005 RMK A01 T00160008  RH  095%=      5-min Rain = 0
KAM1 141135Z 01011KT 02/01 A3005 RMK A01 T00150007  RH  095%=      5-min Rain = 0
KAM1 141136Z 01011KT 02/01 A3005 RMK A01 T00150007  RH  095%=      5-min Rain = 0
KAM1 141137Z 01009KT 02/01 A3005 RMK A01 T00150008  RH  095%=      5-min Rain = 0
KAM1 141138Z 01009KT 02/01 A3005 RMK A01 T00150008  RH  095%=      5-min Rain = 0
KAM1 141139Z 01011KT 02/01 A3005 RMK A01 T00150008  RH  095%=      5-min Rain = 0
KAM1 141140Z 01011KT 02/01 A3005 RMK A01 T00150008  RH  095%=      5-min Rain = 0
KAM1 141141Z 01013KT 02/01 A3005 RMK A01 T00150008  RH  095%=      5-min Rain = 0
KAM1 141142Z 01013KT 02/01 A3005 RMK A01 T00150007  RH  095%=      5-min Rain = 0
KAM1 141143Z 01012KT 02/01 A3005 RMK A01 T00150007  RH  095%=      5-min Rain = 0
KAM1 141144Z 01010KT 02/01 A3005 RMK A01 T00150007  RH  095%=      5-min Rain = 0
KAM1 141145Z 01011KT 02/01 A3005 RMK A01 T00150007  RH  095%=      5-min Rain = 0
KAM1 141146Z 01011KT 02/01 A3005 RMK A01 T00150007  RH  095%=      5-min Rain = 0
KAM1 141147Z 00010KT 02/01 A3005 RMK A01 T00150007  RH  095%=      5-min Rain = 0
KAM1 141148Z 01013KT 02/01 A3005 RMK A01 T00150007  RH  095%=      5-min Rain = 0
KAM1 141149Z 00013KT 02/01 A3005 RMK A01 T00150008  RH  095%=      5-min Rain = 0
KAM1 141150Z 00011KT 02/01 A3005 RMK A01 T00150008  RH  095%=      5-min Rain = 0
KAM1 141151Z 00012KT 02/01 A3005 RMK A01 T00150007  RH  095%=      5-min Rain = 0
KAM1 141152Z 01009KT 02/01 A3005 RMK A01 T00150007  RH  095%=      5-min Rain = 0
KAM1 141153Z 36011KT 01/01 A3005 RMK A01 T00140007  RH  095%=      5-min Rain = 0
KAM1 141154Z 00012KT 01/01 A3005 RMK A01 T00140007  RH  095%=      5-min Rain = 0
KAM1 141155Z 01009KT 01/01 A3005 RMK A01 T00140007  RH  095%=      5-min Rain = 0
KAM1 141156Z 00010KT 01/01 A3005 RMK A01 T00140007  RH  095%=      5-min Rain = 0
KAM1 141157Z 01011KT 01/01 A3005 RMK A01 T00140007  RH  095%=      5-min Rain = 0
KAM1 141158Z 01014KT 01/01 A3005 RMK A01 T00140007  RH  095%=      5-min Rain = 0
KAM1 141159Z 00012KT 01/01 A3005 RMK A01 T00140007  RH  095%=      5-min Rain = 0
KAM1 141200Z 00011KT 01/01 A3005 RMK A01 T00130006  RH  095%=      5-min Rain = 0
KAM1 141201Z 00008KT 01/01 A3005 RMK A01 T00130006  RH  095%=      5-min Rain = 0
KAM1 141202Z 01008KT 01/01 A3005 RMK A01 T00130006  RH  095%=      5-min Rain = 0
KAM1 141203Z 36010KT 01/01 A3005 RMK A01 T00130006  RH  095%=      5-min Rain = 0
KAM1 141204Z 35008KT 01/01 A3005 RMK A01 T00130007  RH  095%=      5-min Rain = 0
KAM1 141205Z 34008KT 01/01 A3005 RMK A01 T00130007  RH  095%=      5-min Rain = 0
KAM1 141206Z 35008KT 01/01 A3005 RMK A01 T00130007  RH  095%=      5-min Rain = 0
KAM1 141207Z 36010KT 01/01 A3005 RMK A01 T00130006  RH  095%=      5-min Rain = 0
KAM1 141208Z 35011KT 01/01 A3005 RMK A01 T00130006  RH  095%=      5-min Rain = 0
KAM1 141209Z 35011KT 01/01 A3005 RMK A01 T00120006  RH  095%=      5-min Rain = 0
KAM1 141210Z 36011KT 01/01 A3005 RMK A01 T00120006  RH  095%=      5-min Rain = 0
KAM1 141211Z 36009KT 01/01 A3005 RMK A01 T00120006  RH  096%=      5-min Rain = 0
KAM1 141212Z 36009KT 01/01 A3006 RMK A01 T00120006  RH  096%=      5-min Rain = 0
KAM1 141213Z 36009KT 01/01 A3006 RMK A01 T00120006  RH  096%=      5-min Rain = 0
KAM1 141214Z 36009KT 01/01 A3005 RMK A01 T00120006  RH  096%=      5-min Rain = 0
KAM1 141215Z 36010KT 01/01 A3005 RMK A01 T00120006  RH  096%=      5-min Rain = 0
KAM1 141216Z 35010KT 01/01 A3005 RMK A01 T00120006  RH  096%=      5-min Rain = 0
KAM1 141217Z 00011KT 01/01 A3005 RMK A01 T00120006  RH  096%=      5-min Rain = 0
KAM1 141218Z 36009KT 01/01 A3005 RMK A01 T00130007  RH  096%=      5-min Rain = 0
KAM1 141219Z 35011KT 01/01 A3005 RMK A01 T00130007  RH  096%=      5-min Rain = 0.01
KAM1 141220Z 36012KT 01/01 A3005 RMK A01 T00130007  RH  096%=      5-min Rain = 0
KAM1 141221Z 36013KT 01/01 A3005 RMK A01 T00130007  RH  096%=      5-min Rain = 0
KAM1 141222Z 00011KT 01/01 A3005 RMK A01 T00130007  RH  096%=      5-min Rain = 0
KAM1 141223Z 00012KT 01/01 A3005 RMK A01 T00130007  RH  096%=      5-min Rain = 0
KAM1 141224Z 00011KT 01/01 A3005 RMK A01 T00130007  RH  096%=      5-min Rain = 0
KAM1 141225Z 00011KT 01/01 A3005 RMK A01 T00130007  RH  096%=      5-min Rain = 0
KAM1 141226Z 00010KT 01/01 A3005 RMK A01 T00130006  RH  096%=      5-min Rain = 0
KAM1 141227Z 00008KT 01/01 A3005 RMK A01 T00130006  RH  096%=      5-min Rain = 0
KAM1 141228Z 00010KT 01/01 A3005 RMK A01 T00130007  RH  096%=      5-min Rain = 0
KAM1 141229Z 36010KT 01/01 A3005 RMK A01 T00130007  RH  096%=      5-min Rain = 0
KAM1 141230Z 00011KT 01/01 A3005 RMK A01 T00130007  RH  096%=      5-min Rain = 0
KAM1 141231Z 36012KT 01/01 A3005 RMK A01 T00130007  RH  096%=      5-min Rain = 0
KAM1 141232Z 00013KT 01/01 A3005 RMK A01 T00130007  RH  096%=      5-min Rain = 0
KAM1 141233Z 00011KT 01/01 A3005 RMK A01 T00130007  RH  096%=      5-min Rain = 0
KAM1 141234Z 36010KT 01/01 A3005 RMK A01 T00130007  RH  096%=      5-min Rain = 0
KAM1 141235Z 01010KT 01/01 A3005 RMK A01 T00130007  RH  096%=      5-min Rain = 0
KAM1 141236Z 36010KT 01/01 A3005 RMK A01 T00130007  RH  096%=      5-min Rain = 0
KAM1 141237Z 35010KT 01/01 A3005 RMK A01 T00130007  RH  096%=      5-min Rain = 0
KAM1 141238Z 35012KT 01/01 A3005 RMK A01 T00130007  RH  096%=      5-min Rain = 0
KAM1 141239Z 36013KT 01/01 A3005 RMK A01 T00130007  RH  096%=      5-min Rain = 0
KAM1 141240Z 36011KT 01/01 A3005 RMK A01 T00130007  RH  096%=      5-min Rain = 0
KAM1 141241Z 35011KT 01/01 A3005 RMK A01 T00120006  RH  096%=      5-min Rain = 0
KAM1 141242Z 34010KT 01/01 A3005 RMK A01 T00120006  RH  096%=      5-min Rain = 0
KAM1 141243Z 35011KT 01/01 A3005 RMK A01 T00120006  RH  096%=      5-min Rain = 0
KAM1 141244Z 35011KT 01/01 A3006 RMK A01 T00120006  RH  096%=      5-min Rain = 0
KAM1 141245Z 35009KT 01/01 A3006 RMK A01 T00120006  RH  096%=      5-min Rain = 0
KAM1 141246Z 36010KT 01/01 A3006 RMK A01 T00120006  RH  096%=      5-min Rain = 0
KAM1 141247Z 35010KT 01/01 A3006 RMK A01 T00130007  RH  096%=      5-min Rain = 0
KAM1 141248Z 35012KT 01/01 A3006 RMK A01 T00120006  RH  096%=      5-min Rain = 0
KAM1 141249Z 35009KT 01/01 A3006 RMK A01 T00120006  RH  096%=      5-min Rain = 0
KAM1 141250Z 35010KT 01/01 A3006 RMK A01 T00120007  RH  096%=      5-min Rain = 0
KAM1 141251Z 35010KT 01/01 A3006 RMK A01 T00120007  RH  096%=      5-min Rain = 0
KAM1 141252Z 35012KT 01/01 A3006 RMK A01 T00120007  RH  096%=      5-min Rain = 0
KAM1 141253Z 35010KT 01/01 A3006 RMK A01 T00120006  RH  096%=      5-min Rain = 0
KAM1 141254Z 35009KT 01/01 A3006 RMK A01 T00120007  RH  096%=      5-min Rain = 0
KAM1 141255Z 35009KT 01/01 A3006 RMK A01 T00130007  RH  096%=      5-min Rain = 0
KAM1 141256Z 36010KT 01/01 A3006 RMK A01 T00120007  RH  096%=      5-min Rain = 0
KAM1 141257Z 36010KT 01/01 A3006 RMK A01 T00130007  RH  096%=      5-min Rain = 0
KAM1 141258Z 36009KT 01/01 A3006 RMK A01 T00130007  RH  096%=      5-min Rain = 0
KAM1 141259Z 35011KT 01/01 A3006 RMK A01 T00130007  RH  096%=      5-min Rain = 0
KAM1 141300Z 35010KT 01/01 A3006 RMK A01 T00130007  RH  096%=      5-min Rain = 0
KAM1 141301Z 36012KT 01/01 A3006 RMK A01 T00130007  RH  096%=      5-min Rain = 0
KAM1 141302Z 35011KT 01/01 A3006 RMK A01 T00130007  RH  096%=      5-min Rain = 0
KAM1 141303Z 35010KT 01/01 A3006 RMK A01 T00130007  RH  096%=      5-min Rain = 0
KAM1 141304Z 00010KT 01/01 A3007 RMK A01 T00130007  RH  096%=      5-min Rain = 0
KAM1 141305Z 36011KT 01/01 A3007 RMK A01 T00130007  RH  096%=      5-min Rain = 0
KAM1 141306Z 00012KT 01/01 A3007 RMK A01 T00140008  RH  096%=      5-min Rain = 0
KAM1 141307Z 00011KT 01/01 A3007 RMK A01 T00130007  RH  096%=      5-min Rain = 0
KAM1 141308Z 36012KT 01/01 A3007 RMK A01 T00130007  RH  096%=      5-min Rain = 0
KAM1 141309Z 36011KT 01/01 A3007 RMK A01 T00130007  RH  096%=      5-min Rain = 0
KAM1 141310Z 36011KT 01/01 A3007 RMK A01 T00130007  RH  096%=      5-min Rain = 0
KAM1 141311Z 36012KT 01/01 A3007 RMK A01 T00130007  RH  096%=      5-min Rain = 0
KAM1 141312Z 36011KT 01/01 A3007 RMK A01 T00120006  RH  096%=      5-min Rain = 0
KAM1 141313Z 36013KT 01/01 A3007 RMK A01 T00120006  RH  096%=      5-min Rain = 0
KAM1 141314Z 36013KT 01/01 A3007 RMK A01 T00120006  RH  096%=      5-min Rain = 0
KAM1 141315Z 36014KT 01/01 A3007 RMK A01 T00110005  RH  096%=      5-min Rain = 0.01
KAM1 141316Z 36013KT 01/01 A3007 RMK A01 T00110005  RH  096%=      5-min Rain = 0
KAM1 141317Z 00014KT 01/00 A3007 RMK A01 T00110004  RH  096%=      5-min Rain = 0
KAM1 141318Z 36013KT 01/00 A3007 RMK A01 T00110004  RH  096%=      5-min Rain = 0
KAM1 141319Z 35014KT 01/00 A3007 RMK A01 T00110004  RH  096%=      5-min Rain = 0
KAM1 141320Z 36013KT 01/00 A3007 RMK A01 T00100004  RH  095%=      5-min Rain = 0
KAM1 141321Z 00013KT 01/00 A3007 RMK A01 T00100004  RH  096%=      5-min Rain = 0
KAM1 141322Z 00012KT 01/00 A3007 RMK A01 T00100003  RH  096%=      5-min Rain = 0
KAM1 141323Z 36011KT 01/00 A3007 RMK A01 T00100003  RH  096%=      5-min Rain = 0
KAM1 141324Z 35012KT 01/00 A3007 RMK A01 T00090003  RH  096%=      5-min Rain = 0
KAM1 141325Z 36011KT 01/00 A3007 RMK A01 T00090003  RH  096%=      5-min Rain = 0
KAM1 141326Z 35012KT 01/00 A3007 RMK A01 T00090003  RH  096%=      5-min Rain = 0
KAM1 141327Z 36012KT 01/00 A3007 RMK A01 T00090002  RH  096%=      5-min Rain = 0
KAM1 141328Z 36012KT 01/00 A3007 RMK A01 T00090003  RH  096%=      5-min Rain = 0
KAM1 141329Z 35010KT 01/00 A3007 RMK A01 T00090003  RH  096%=      5-min Rain = 0
KAM1 141330Z 35010KT 01/00 A3007 RMK A01 T00090003  RH  096%=      5-min Rain = 0
KAM1 141331Z 35011KT 01/00 A3007 RMK A01 T00090003  RH  096%=      5-min Rain = 0
KAM1 141332Z 35012G17KT 01/00 A3007 RMK A01 T00090003  RH  096%=      5-min Rain = 0
KAM1 141333Z 36014KT 01/00 A3007 RMK A01 T00090003  RH  096%=      5-min Rain = 0.01
KAM1 141334Z 35013KT 01/00 A3007 RMK A01 T00090003  RH  096%=      5-min Rain = 0
KAM1 141335Z 35016KT 01/00 A3007 RMK A01 T00080003  RH  096%=      5-min Rain = 0
KAM1 141336Z 35014KT 01/00 A3007 RMK A01 T00080003  RH  096%=      5-min Rain = 0
KAM1 141337Z 36015KT 01/00 A3007 RMK A01 T00070002  RH  096%=      5-min Rain = 0
KAM1 141338Z 35018G23KT 01/00 A3007 RMK A01 T00070001  RH  096%=      5-min Rain = 0
KAM1 141339Z 36013KT 01/00 A3007 RMK A01 T00060000  RH  096%=      5-min Rain = 0
KAM1 141340Z 36011KT 01/M00 A3007 RMK A01 T00051001  RH  096%=      5-min Rain = 0
KAM1 141341Z 36013KT 01/M00 A3007 RMK A01 T00051001  RH  096%=      5-min Rain = 0
KAM1 141342Z 36015KT 00/M00 A3007 RMK A01 T00041002  RH  096%=      5-min Rain = 0
KAM1 141343Z 35014KT 00/M00 A3008 RMK A01 T00041002  RH  096%=      5-min Rain = 0
KAM1 141344Z 36015KT 00/M00 A3008 RMK A01 T00041002  RH  096%=      5-min Rain = 0
KAM1 141345Z 00016KT 00/M00 A3008 RMK A01 T00041002  RH  096%=      5-min Rain = 0
KAM1 141346Z 35017KT 00/M00 A3008 RMK A01 T00041002  RH  096%=      5-min Rain = 0
KAM1 141347Z 36017KT 00/M00 A3008 RMK A01 T00041002  RH  096%=      5-min Rain = 0
KAM1 141348Z 35019KT 00/M00 A3008 RMK A01 T00041002  RH  096%=      5-min Rain = 0
KAM1 141349Z 36016KT 00/M00 A3008 RMK A01 T00041002  RH  096%=      5-min Rain = 0
KAM1 141350Z 35017KT 00/M00 A3008 RMK A01 T00031002  RH  096%=      5-min Rain = 0
KAM1 141351Z 36019KT 00/M00 A3008 RMK A01 T00031002  RH  096%=      5-min Rain = 0
KAM1 141352Z 35016KT 00/M00 A3008 RMK A01 T00031002  RH  096%=      5-min Rain = 0
KAM1 141353Z 35015KT 00/M00 A3008 RMK A01 T00031002  RH  096%=      5-min Rain = 0
KAM1 141354Z 35013KT 00/M00 A3009 RMK A01 T00031003  RH  096%=      5-min Rain = 0
KAM1 141355Z 36014KT 00/M00 A3009 RMK A01 T00031003  RH  096%=      5-min Rain = 0
KAM1 141356Z 36014KT 00/M00 A3009 RMK A01 T00021003  RH  096%=      5-min Rain = 0
KAM1 141357Z 36015KT 00/M00 A3009 RMK A01 T00021003  RH  096%=      5-min Rain = 0
KAM1 141358Z 36017KT 00/M00 A3009 RMK A01 T00021003  RH  096%=      5-min Rain = 0
KAM1 141359Z 36017KT 00/M00 A3009 RMK A01 T00021003  RH  096%=      5-min Rain = 0
KAM1 141400Z 35017KT 00/M00 A3009 RMK A01 T00021003  RH  096%=      5-min Rain = 0
KAM1 141401Z 36017KT 00/M00 A3009 RMK A01 T00021003  RH  097%=      5-min Rain = 0
KAM1 141402Z 35018KT 00/M00 A3009 RMK A01 T00021003  RH  097%=      5-min Rain = 0
KAM1 141403Z 35015KT 00/M00 A3009 RMK A01 T00021003  RH  097%=      5-min Rain = 0
KAM1 141404Z 35018KT 00/M00 A3009 RMK A01 T00011003  RH  097%=      5-min Rain = 0
KAM1 141405Z 36016KT 00/M00 A3009 RMK A01 T00011003  RH  097%=      5-min Rain = 0
KAM1 141406Z 36016KT 00/M00 A3009 RMK A01 T00021003  RH  097%=      5-min Rain = 0
KAM1 141407Z 35015KT 00/M00 A3009 RMK A01 T00011004  RH  097%=      5-min Rain = 0
KAM1 141408Z 35016KT 00/M00 A3009 RMK A01 T00011004  RH  097%=      5-min Rain = 0
KAM1 141409Z 00016KT 00/M00 A3009 RMK A01 T00011004  RH  097%=      5-min Rain = 0
KAM1 141410Z 36015KT 00/M00 A3009 RMK A01 T00011003  RH  097%=      5-min Rain = 0
KAM1 141411Z 35019KT 00/M00 A3009 RMK A01 T00011003  RH  097%=      5-min Rain = 0
KAM1 141412Z 36021KT 00/M00 A3009 RMK A01 T00011003  RH  097%=      5-min Rain = 0
KAM1 141413Z 36022KT 00/M00 A3009 RMK A01 T00011003  RH  097%=      5-min Rain = 0
KAM1 141414Z 00020G25KT 00/M00 A3009 RMK A01 T00011003  RH  097%=      5-min Rain = 0
KAM1 141415Z 00020KT 00/M00 A3009 RMK A01 T00011003  RH  097%=      5-min Rain = 0
KAM1 141416Z 36020G26KT 00/M00 A3009 RMK A01 T00011003  RH  097%=      5-min Rain = 0
KAM1 141417Z 00021KT 00/M00 A3009 RMK A01 T00011003  RH  097%=      5-min Rain = 0
KAM1 141418Z 36018G23KT 00/M00 A3009 RMK A01 T00011003  RH  097%=      5-min Rain = 0
KAM1 141419Z 00021KT 00/M00 A3009 RMK A01 T00021002  RH  097%=      5-min Rain = 0
KAM1 141420Z 36019G24KT 00/M00 A3009 RMK A01 T00021003  RH  097%=      5-min Rain = 0
KAM1 141421Z 00020KT 00/M00 A3009 RMK A01 T00011003  RH  097%=      5-min Rain = 0
KAM1 141422Z 00021G26KT 00/M00 A3009 RMK A01 T00011003  RH  097%=      5-min Rain = 0
KAM1 141423Z 00018KT 00/M00 A3009 RMK A01 T00011003  RH  097%=      5-min Rain = 0
KAM1 141424Z 36019G24KT 00/M00 A3009 RMK A01 T00011003  RH  097%=      5-min Rain = 0
KAM1 141425Z 00021G27KT 00/M00 A3009 RMK A01 T00011003  RH  097%=      5-min Rain = 0
KAM1 141426Z 36020KT 00/M00 A3009 RMK A01 T00011003  RH  097%=      5-min Rain = 0
KAM1 141427Z 00023KT 00/M00 A3009 RMK A01 T00011002  RH  097%=      5-min Rain = 0
KAM1 141428Z 01022KT 00/M00 A3009 RMK A01 T00021002  RH  097%=      5-min Rain = 0
KAM1 141429Z 00022G27KT 00/M00 A3009 RMK A01 T00021002  RH  097%=      5-min Rain = 0
KAM1 141430Z 36021G26KT 00/M00 A3008 RMK A01 T00021002  RH  097%=      5-min Rain = 0
KAM1 141431Z 00020G26KT 00/M00 A3008 RMK A01 T00021002  RH  097%=      5-min Rain = 0
KAM1 141432Z 00024KT 00/M00 A3008 RMK A01 T00021002  RH  097%=      5-min Rain = 0
KAM1 141433Z 00023G28KT 00/M00 A3008 RMK A01 T00021002  RH  097%=      5-min Rain = 0
KAM1 141434Z 36021KT 00/M00 A3008 RMK A01 T00021002  RH  097%=      5-min Rain = 0
KAM1 141435Z 00023G29KT 00/M00 A3008 RMK A01 T00021002  RH  097%=      5-min Rain = 0
KAM1 141436Z 00022G28KT 00/M00 A3008 RMK A01 T00021002  RH  097%=      5-min Rain = 0
KAM1 141437Z 00020G26KT 00/M00 A3008 RMK A01 T00021002  RH  097%=      5-min Rain = 0
KAM1 141438Z 01021G27KT 00/M00 A3008 RMK A01 T00021002  RH  097%=      5-min Rain = 0
KAM1 141439Z 00022G27KT 00/M00 A3008 RMK A01 T00021002  RH  097%=      5-min Rain = 0
KAM1 141440Z 00024KT 00/M00 A3009 RMK A01 T00021002  RH  097%=      5-min Rain = 0
KAM1 141441Z 00026KT 00/M00 A3008 RMK A01 T00021002  RH  097%=      5-min Rain = 0
KAM1 141442Z 01025KT 00/M00 A3009 RMK A01 T00021002  RH  097%=      5-min Rain = 0
KAM1 141443Z 00025KT 00/M00 A3009 RMK A01 T00021002  RH  097%=      5-min Rain = 0
KAM1 141444Z 36022KT 00/M00 A3009 RMK A01 T00021002  RH  097%=      5-min Rain = 0
KAM1 141445Z 00021KT 00/M00 A3009 RMK A01 T00021002  RH  097%=      5-min Rain = 0
KAM1 141446Z 01022KT 00/M00 A3009 RMK A01 T00021002  RH  097%=      5-min Rain = 0
KAM1 141447Z 01020KT 00/M00 A3009 RMK A01 T00021002  RH  097%=      5-min Rain = 0
KAM1 141448Z 01022KT 00/M00 A3009 RMK A01 T00021002  RH  097%=      5-min Rain = 0
KAM1 141449Z 01018KT 00/M00 A3009 RMK A01 T00021001  RH  097%=      5-min Rain = 0
KAM1 141450Z 01023G31KT 00/M00 A3009 RMK A01 T00031001  RH  097%=      5-min Rain = 0
KAM1 141451Z 01022G28KT 00/M00 A301 RMK A01 T00031001  RH  097%=      5-min Rain = 0
KAM1 141452Z 01023KT 00/M00 A301 RMK A01 T00031001  RH  097%=      5-min Rain = 0
KAM1 141453Z 01018G23KT 00/M00 A301 RMK A01 T00031001  RH  097%=      5-min Rain = 0
KAM1 141454Z 01020G28KT 00/M00 A301 RMK A01 T00031001  RH  097%=      5-min Rain = 0
KAM1 141455Z 02024KT 00/M00 A301 RMK A01 T00031001  RH  097%=      5-min Rain = 0
KAM1 141456Z 01022G30KT 00/M00 A3011 RMK A01 T00031001  RH  097%=      5-min Rain = 0
KAM1 141457Z 01024G29KT 00/M00 A3011 RMK A01 T00031001  RH  097%=      5-min Rain = 0
KAM1 141458Z 01021G29KT 00/M00 A3011 RMK A01 T00031001  RH  097%=      5-min Rain = 0.01
KAM1 141459Z 01024G29KT 00/M00 A3011 RMK A01 T00031001  RH  097%=      5-min Rain = 0
KAM1 141500Z 01026KT 00/M00 A3011 RMK A01 T00031001  RH  097%=      5-min Rain = 0
KAM1 141501Z 01025G32KT 00/M00 A3011 RMK A01 T00031001  RH  097%=      5-min Rain = 0
KAM1 141502Z 01027KT 00/M00 A3011 RMK A01 T00031001  RH  097%=      5-min Rain = 0
KAM1 141503Z 01031G36KT 00/M00 A3011 RMK A01 T00031001  RH  097%=      5-min Rain = 0
KAM1 141504Z 01028G36KT 00/M00 A3011 RMK A01 T00031001  RH  097%=      5-min Rain = 0.01
KAM1 141505Z 01023KT 00/M00 A3012 RMK A01 T00031001  RH  097%=      5-min Rain = 0
KAM1 141506Z 01023KT 00/M00 A3012 RMK A01 T00031001  RH  097%=      5-min Rain = 0
KAM1 141507Z 01021G26KT 00/M00 A3012 RMK A01 T00031001  RH  097%=      5-min Rain = 0
KAM1 141508Z 01022G28KT 00/M00 A3012 RMK A01 T00031001  RH  097%=      5-min Rain = 0
KAM1 141509Z 01023KT 00/M00 A3012 RMK A01 T00031001  RH  097%=      5-min Rain = 0
KAM1 141510Z 01022G27KT 00/M00 A3012 RMK A01 T00031001  RH  097%=      5-min Rain = 0
KAM1 141511Z 01024KT 00/M00 A3012 RMK A01 T00031001  RH  097%=      5-min Rain = 0.01
KAM1 141512Z 01022KT 00/M00 A3012 RMK A01 T00031001  RH  097%=      5-min Rain = 0
KAM1 141513Z 01020KT 00/M00 A3012 RMK A01 T00031001  RH  097%=      5-min Rain = 0
KAM1 141514Z 01023KT 00/M00 A3012 RMK A01 T00031001  RH  097%=      5-min Rain = 0
KAM1 141515Z 01017KT 00/M00 A3012 RMK A01 T00031001  RH  097%=      5-min Rain = 0
KAM1 141516Z 01020G25KT 00/M00 A3012 RMK A01 T00031001  RH  097%=      5-min Rain = 0
KAM1 141517Z 01019KT 00/M00 A3012 RMK A01 T00031001  RH  097%=      5-min Rain = 0
KAM1 141518Z 01018G23KT 00/M00 A3012 RMK A01 T00031001  RH  097%=      5-min Rain = 0
KAM1 141519Z 01021KT 00/M00 A3012 RMK A01 T00031001  RH  097%=      5-min Rain = 0
KAM1 141520Z 01018G23KT 00/M00 A3012 RMK A01 T00031001  RH  097%=      5-min Rain = 0
KAM1 141521Z 01019G24KT 00/M00 A3012 RMK A01 T00031001  RH  097%=      5-min Rain = 0
KAM1 141522Z 01019KT 00/M00 A3012 RMK A01 T00031001  RH  097%=      5-min Rain = 0.01
KAM1 141523Z 01017KT 00/M00 A3012 RMK A01 T00031001  RH  097%=      5-min Rain = 0
KAM1 141524Z 01018KT 00/M00 A3012 RMK A01 T00031001  RH  097%=      5-min Rain = 0
KAM1 141525Z 01017G22KT 00/M00 A3012 RMK A01 T00031001  RH  097%=      5-min Rain = 0
KAM1 141526Z 00016G21KT 00/M00 A3012 RMK A01 T00031001  RH  097%=      5-min Rain = 0
KAM1 141527Z 00020KT 00/M00 A3012 RMK A01 T00031001  RH  097%=      5-min Rain = 0
KAM1 141528Z 00020KT 00/M00 A3012 RMK A01 T00031001  RH  097%=      5-min Rain = 0
KAM1 141529Z 00016KT 00/M00 A3012 RMK A01 T00031001  RH  097%=      5-min Rain = 0
KAM1 141530Z 01019KT 00/M00 A3012 RMK A01 T00031001  RH  097%=      5-min Rain = 0
KAM1 141531Z 01021KT 00/M00 A3012 RMK A01 T00031001  RH  097%=      5-min Rain = 0.01
KAM1 141532Z 01017KT 00/M00 A3012 RMK A01 T00031001  RH  097%=      5-min Rain = 0
KAM1 141533Z 00019G25KT 00/M00 A3012 RMK A01 T00031001  RH  097%=      5-min Rain = 0
KAM1 141534Z 01019KT 00/M00 A3012 RMK A01 T00031001  RH  097%=      5-min Rain = 0
KAM1 141535Z 00018KT 00/M00 A3012 RMK A01 T00031001  RH  097%=      5-min Rain = 0
KAM1 141536Z 00018G23KT 00/M00 A3012 RMK A01 T00031001  RH  097%=      5-min Rain = 0
KAM1 141537Z 01021KT 00/M00 A3012 RMK A01 T00031001  RH  097%=      5-min Rain = 0
KAM1 141538Z 00019G24KT 00/M00 A3012 RMK A01 T00031001  RH  097%=      5-min Rain = 0
KAM1 141539Z 01021G26KT 00/M00 A3012 RMK A01 T00021002  RH  097%=      5-min Rain = 0
KAM1 141540Z 01020G25KT 00/M00 A3012 RMK A01 T00021003  RH  097%=      5-min Rain = 0.01
KAM1 141541Z 00018KT 00/M00 A3012 RMK A01 T00021003  RH  097%=      5-min Rain = 0
KAM1 141542Z 01019KT 00/M00 A3012 RMK A01 T00021003  RH  097%=      5-min Rain = 0
KAM1 141543Z 00021KT 00/M00 A3012 RMK A01 T00021003  RH  097%=      5-min Rain = 0
KAM1 141544Z 00019G25KT 00/M00 A3012 RMK A01 T00011003  RH  097%=      5-min Rain = 0
KAM1 141545Z 01018G24KT 00/M00 A3012 RMK A01 T00011003  RH  097%=      5-min Rain = 0
KAM1 141546Z 01019G25KT 00/M00 A3012 RMK A01 T00021003  RH  097%=      5-min Rain = 0
KAM1 141547Z 01020KT 00/M00 A3012 RMK A01 T00011003  RH  097%=      5-min Rain = 0
KAM1 141548Z 01023KT 00/M00 A3012 RMK A01 T00011003  RH  097%=      5-min Rain = 0
KAM1 141549Z 00020G25KT 00/M00 A3012 RMK A01 T00021003  RH  097%=      5-min Rain = 0.01
KAM1 141550Z 01016KT 00/M00 A3012 RMK A01 T00011004  RH  096%=      5-min Rain = 0
KAM1 141551Z 01022KT 00/M00 A3012 RMK A01 T00011004  RH  096%=      5-min Rain = 0
KAM1 141552Z 01017KT 00/M00 A3012 RMK A01 T00011004  RH  096%=      5-min Rain = 0
KAM1 141553Z 00019KT 00/M00 A3012 RMK A01 T00011004  RH  096%=      5-min Rain = 0
KAM1 141554Z 01019KT 00/M00 A3012 RMK A01 T00011004  RH  096%=      5-min Rain = 0
KAM1 141555Z 00016KT 00/M00 A3012 RMK A01 T00011004  RH  096%=      5-min Rain = 0
KAM1 141556Z 00016KT 00/M00 A3012 RMK A01 T00011004  RH  096%=      5-min Rain = 0
KAM1 141557Z 36022KT 00/M00 A3012 RMK A01 T00021004  RH  096%=      5-min Rain = 0
KAM1 141558Z 00020KT 00/M00 A3012 RMK A01 T00011004  RH  096%=      5-min Rain = 0
KAM1 141559Z 00019KT 00/M00 A3012 RMK A01 T00011004  RH  096%=      5-min Rain = 0
KAM1 141600Z 00016KT 00/M00 A3012 RMK A01 T00011004  RH  096%=      5-min Rain = 0
KAM1 141601Z 36016KT 00/M00 A3013 RMK A01 T00011004  RH  096%=      5-min Rain = 0
KAM1 141602Z 00020KT 00/M00 A3012 RMK A01 T00011004  RH  096%=      5-min Rain = 0
KAM1 141603Z 36018KT 00/M00 A3012 RMK A01 T00011004  RH  096%=      5-min Rain = 0
KAM1 141604Z 36018KT 00/M00 A3012 RMK A01 T00011004  RH  096%=      5-min Rain = 0
KAM1 141605Z 35017KT 00/M00 A3012 RMK A01 T00021004  RH  096%=      5-min Rain = 0.01
KAM1 141606Z 35016KT 00/M00 A3013 RMK A01 T00011004  RH  096%=      5-min Rain = 0
KAM1 141607Z 00015KT 00/M00 A3013 RMK A01 T00011004  RH  096%=      5-min Rain = 0
KAM1 141608Z 36017KT 00/M00 A3013 RMK A01 T00011004  RH  096%=      5-min Rain = 0
KAM1 141609Z 36018KT 00/M00 A3012 RMK A01 T00021004  RH  096%=      5-min Rain = 0
KAM1 141610Z 36018KT 00/M00 A3013 RMK A01 T00011004  RH  096%=      5-min Rain = 0
KAM1 141611Z 35017G22KT 00/M00 A3013 RMK A01 T00021004  RH  096%=      5-min Rain = 0
KAM1 141612Z 36017KT 00/M00 A3013 RMK A01 T00011004  RH  096%=      5-min Rain = 0
KAM1 141613Z 35015KT 00/M00 A3013 RMK A01 T00011004  RH  096%=      5-min Rain = 0
KAM1 141614Z 36018KT 00/M00 A3013 RMK A01 T00021004  RH  096%=      5-min Rain = 0
KAM1 141615Z 35014KT 00/M00 A3013 RMK A01 T00021004  RH  096%=      5-min Rain = 0
KAM1 141616Z 35015KT 00/M00 A3013 RMK A01 T00021004  RH  096%=      5-min Rain = 0.01
KAM1 141617Z 36016KT 00/M00 A3013 RMK A01 T00021004  RH  096%=      5-min Rain = 0
KAM1 141618Z 35016KT 00/M00 A3013 RMK A01 T00011004  RH  096%=      5-min Rain = 0
KAM1 141619Z 36014KT 00/M00 A3013 RMK A01 T00011004  RH  096%=      5-min Rain = 0
KAM1 141620Z 35015KT 00/M00 A3013 RMK A01 T00011004  RH  096%=      5-min Rain = 0
KAM1 141621Z 34016KT 00/M00 A3013 RMK A01 T00011004  RH  096%=      5-min Rain = 0
KAM1 141622Z 35015KT 00/M00 A3013 RMK A01 T00011004  RH  096%=      5-min Rain = 0
KAM1 141623Z 35014KT 00/M00 A3013 RMK A01 T00011004  RH  096%=      5-min Rain = 0
KAM1 141624Z 35017KT 00/M00 A3013 RMK A01 T00011004  RH  096%=      5-min Rain = 0
KAM1 141625Z 35017KT 00/M01 A3013 RMK A01 T00011005  RH  096%=      5-min Rain = 0
KAM1 141626Z 35016KT 00/M00 A3013 RMK A01 T00011004  RH  096%=      5-min Rain = 0
KAM1 141627Z 35014KT 00/M00 A3013 RMK A01 T00011004  RH  096%=      5-min Rain = 0
KAM1 141628Z 35013G20KT 00/M01 A3013 RMK A01 T00011005  RH  096%=      5-min Rain = 0
KAM1 141629Z 35018KT 00/M01 A3013 RMK A01 T00011005  RH  096%=      5-min Rain = 0
KAM1 141630Z 35016KT 00/M01 A3013 RMK A01 T00011005  RH  096%=      5-min Rain = 0
KAM1 141631Z 35015KT 00/M01 A3013 RMK A01 T00011005  RH  096%=      5-min Rain = 0
KAM1 141632Z 36014KT 00/01 A3013 RMK A01 T000000-5  RH  096%=      5-min Rain = 0
KAM1 141633Z 36014KT 00/M01 A3013 RMK A01 T00011005  RH  096%=      5-min Rain = 0
KAM1 141634Z 36015G20KT 00/01 A3014 RMK A01 T000000-5  RH  096%=      5-min Rain = 0
KAM1 141635Z 00016KT 00/01 A3013 RMK A01 T000000-5  RH  096%=      5-min Rain = 0
KAM1 141636Z 35016KT 00/M01 A3013 RMK A01 T00011005  RH  096%=      5-min Rain = 0
KAM1 141637Z 36015KT 00/01 A3014 RMK A01 T000000-5  RH  096%=      5-min Rain = 0
KAM1 141638Z 35014KT 00/01 A3014 RMK A01 T000000-5  RH  096%=      5-min Rain = 0
KAM1 141639Z 36014KT 00/01 A3014 RMK A01 T000000-5  RH  096%=      5-min Rain = 0
KAM1 141640Z 35016KT 00/M01 A3014 RMK A01 T00011005  RH  096%=      5-min Rain = 0
KAM1 141641Z 35016KT 00/M01 A3014 RMK A01 T00011005  RH  096%=      5-min Rain = 0
KAM1 141642Z 36018KT 00/01 A3014 RMK A01 T000000-6  RH  096%=      5-min Rain = 0
KAM1 141643Z 36019KT 00/01 A3014 RMK A01 T000000-6  RH  096%=      5-min Rain = 0
KAM1 141644Z 36016KT 00/01 A3014 RMK A01 T00-000-6  RH  096%=      5-min Rain = 0
KAM1 141645Z 35016G21KT 00/01 A3014 RMK A01 T00-000-6  RH  096%=      5-min Rain = 0
KAM1 141646Z 35014KT 00/01 A3014 RMK A01 T00-000-6  RH  096%=      5-min Rain = 0
KAM1 141647Z 36013KT 00/01 A3014 RMK A01 T00-000-6  RH  096%=      5-min Rain = 0
KAM1 141648Z 35019KT 00/01 A3014 RMK A01 T00-000-6  RH  096%=      5-min Rain = 0
KAM1 141649Z 35017KT 00/01 A3014 RMK A01 T00-000-6  RH  096%=      5-min Rain = 0
KAM1 141650Z 36016KT 00/01 A3014 RMK A01 T00-000-6  RH  096%=      5-min Rain = 0
KAM1 141651Z 00014KT 00/01 A3014 RMK A01 T00-000-6  RH  096%=      5-min Rain = 0
KAM1 141652Z 00016KT 00/01 A3014 RMK A01 T00-000-6  RH  096%=      5-min Rain = 0
KAM1 141653Z 36016KT 00/01 A3014 RMK A01 T00-000-6  RH  096%=      5-min Rain = 0
KAM1 141654Z 35014KT 00/01 A3014 RMK A01 T00-000-6  RH  096%=      5-min Rain = 0
KAM1 141655Z 36016KT 00/01 A3014 RMK A01 T00-000-6  RH  096%=      5-min Rain = 0
KAM1 141656Z 36014KT 00/01 A3014 RMK A01 T00-000-6  RH  096%=      5-min Rain = 0
KAM1 141657Z 36015KT 00/01 A3014 RMK A01 T00-000-6  RH  096%=      5-min Rain = 0
KAM1 141658Z 00015KT M00/M01 A3014 RMK A01 T10011006  RH  096%=      5-min Rain = 0
KAM1 141659Z 36015KT 00/01 A3014 RMK A01 T00-000-6  RH  096%=      5-min Rain = 0
KAM1 141700Z 36017KT 00/01 A3014 RMK A01 T00-000-6  RH  096%=      5-min Rain = 0
KAM1 141701Z 36016G22KT 00/01 A3014 RMK A01 T00-000-6  RH  096%=      5-min Rain = 0
KAM1 141702Z 36018KT M00/M01 A3014 RMK A01 T10011006  RH  096%=      5-min Rain = 0
KAM1 141703Z 00016KT 00/01 A3014 RMK A01 T00-000-6  RH  096%=      5-min Rain = 0
KAM1 141704Z 36016KT M00/M01 A3014 RMK A01 T10011007  RH  096%=      5-min Rain = 0
KAM1 141705Z 36015G20KT M00/M01 A3014 RMK A01 T10011007  RH  096%=      5-min Rain = 0
KAM1 141706Z 35017KT M00/M01 A3014 RMK A01 T10011007  RH  096%=      5-min Rain = 0.01
KAM1 141707Z 36015KT M00/M01 A3014 RMK A01 T10011007  RH  096%=      5-min Rain = 0
KAM1 141708Z 35015G20KT M00/M01 A3014 RMK A01 T10011007  RH  096%=      5-min Rain = 0
KAM1 141709Z 35015G20KT M00/M01 A3014 RMK A01 T10011007  RH  096%=      5-min Rain = 0
KAM1 141710Z 35013KT M00/M01 A3014 RMK A01 T10011007  RH  096%=      5-min Rain = 0
KAM1 141711Z 35013KT 00/01 A3014 RMK A01 T00-000-7  RH  096%=      5-min Rain = 0
KAM1 141712Z 35014KT 00/01 A3014 RMK A01 T00-000-7  RH  096%=      5-min Rain = 0
KAM1 141713Z 35016KT 00/01 A3014 RMK A01 T00-000-7  RH  096%=      5-min Rain = 0
KAM1 141714Z 35016KT 00/01 A3014 RMK A01 T00-000-7  RH  096%=      5-min Rain = 0
KAM1 141715Z 35015KT 00/01 A3014 RMK A01 T00-000-6  RH  096%=      5-min Rain = 0
KAM1 141716Z 35015KT 00/01 A3014 RMK A01 T00-000-7  RH  096%=      5-min Rain = 0
KAM1 141717Z 35014KT 00/01 A3014 RMK A01 T00-000-7  RH  096%=      5-min Rain = 0
KAM1 141718Z 34014KT 00/01 A3014 RMK A01 T00-000-7  RH  096%=      5-min Rain = 0
KAM1 141719Z 35018KT 00/01 A3014 RMK A01 T00-000-6  RH  096%=      5-min Rain = 0
KAM1 141720Z 35016KT 00/01 A3014 RMK A01 T00-000-7  RH  096%=      5-min Rain = 0
KAM1 141721Z 34017KT 00/01 A3014 RMK A01 T00-000-7  RH  096%=      5-min Rain = 0
KAM1 141722Z 35015KT 00/01 A3014 RMK A01 T00-000-7  RH  096%=      5-min Rain = 0
KAM1 141723Z 35015KT 00/01 A3014 RMK A01 T00-000-7  RH  095%=      5-min Rain = 0
KAM1 141724Z 34017KT 00/01 A3014 RMK A01 T00-000-7  RH  095%=      5-min Rain = 0
KAM1 141725Z 35017KT 00/01 A3014 RMK A01 T00-000-7  RH  095%=      5-min Rain = 0
KAM1 141726Z 35014KT 00/01 A3014 RMK A01 T00-000-7  RH  095%=      5-min Rain = 0
KAM1 141727Z 35015KT 00/01 A3014 RMK A01 T00-000-7  RH  095%=      5-min Rain = 0
KAM1 141728Z 35017KT 00/01 A3014 RMK A01 T00-000-7  RH  095%=      5-min Rain = 0
KAM1 141729Z 35016KT 00/01 A3014 RMK A01 T00-000-7  RH  095%=      5-min Rain = 0
KAM1 141730Z 35017KT 00/01 A3014 RMK A01 T00-000-7  RH  095%=      5-min Rain = 0
KAM1 141731Z 35015KT 00/01 A3014 RMK A01 T00-000-7  RH  095%=      5-min Rain = 0
KAM1 141732Z 35014KT M00/M01 A3014 RMK A01 T10011007  RH  095%=      5-min Rain = 0
KAM1 141733Z 35014KT 00/01 A3015 RMK A01 T00-000-7  RH  095%=      5-min Rain = 0
KAM1 141734Z 36016G21KT 00/01 A3015 RMK A01 T00-000-7  RH  095%=      5-min Rain = 0
KAM1 141735Z 35015KT 00/01 A3015 RMK A01 T00-000-7  RH  095%=      5-min Rain = 0
KAM1 141736Z 36016KT 00/01 A3015 RMK A01 T00-000-7  RH  095%=      5-min Rain = 0
KAM1 141737Z 36015KT 00/01 A3015 RMK A01 T00-000-7  RH  095%=      5-min Rain = 0
KAM1 141738Z 36015KT 00/01 A3015 RMK A01 T00-000-7  RH  095%=      5-min Rain = 0
KAM1 141739Z 36014KT 00/01 A3015 RMK A01 T00-000-7  RH  095%=      5-min Rain = 0
KAM1 141740Z 35015KT 00/01 A3015 RMK A01 T00-000-7  RH  095%=      5-min Rain = 0
KAM1 141741Z 35014G19KT 00/01 A3015 RMK A01 T00-000-7  RH  095%=      5-min Rain = 0
KAM1 141742Z 35017KT 00/01 A3015 RMK A01 T00-000-7  RH  095%=      5-min Rain = 0
KAM1 141743Z 35015KT M00/M01 A3014 RMK A01 T10011007  RH  095%=      5-min Rain = 0
KAM1 141744Z 34015KT 00/01 A3014 RMK A01 T00-000-7  RH  095%=      5-min Rain = 0
KAM1 141745Z 35017KT 00/01 A3014 RMK A01 T00-000-7  RH  095%=      5-min Rain = 0
KAM1 141746Z 35016KT 00/01 A3014 RMK A01 T00-000-7  RH  095%=      5-min Rain = 0
KAM1 141747Z 34013KT 00/01 A3014 RMK A01 T00-000-7  RH  095%=      5-min Rain = 0
KAM1 141748Z 34016KT M00/M01 A3014 RMK A01 T10011007  RH  095%=      5-min Rain = 0
KAM1 141749Z 34015KT 00/01 A3014 RMK A01 T00-000-7  RH  095%=      5-min Rain = 0
KAM1 141750Z 34012KT M00/M01 A3014 RMK A01 T10011007  RH  095%=      5-min Rain = 0
KAM1 141751Z 34014KT 00/01 A3014 RMK A01 T00-000-7  RH  095%=      5-min Rain = 0
KAM1 141752Z 34014KT 00/01 A3014 RMK A01 T00-000-7  RH  095%=      5-min Rain = 0
KAM1 141753Z 35013KT 00/M01 A3014 RMK A01 T00011006  RH  095%=      5-min Rain = 0
KAM1 141754Z 34015KT 00/M01 A3014 RMK A01 T00011006  RH  095%=      5-min Rain = 0
KAM1 141755Z 34014KT 00/01 A3014 RMK A01 T000000-7  RH  095%=      5-min Rain = 0
KAM1 141756Z 34014KT 00/M01 A3014 RMK A01 T00011007  RH  095%=      5-min Rain = 0
KAM1 141757Z 34014KT 00/M01 A3014 RMK A01 T00011007  RH  095%=      5-min Rain = 0
KAM1 141758Z 34013KT 00/M01 A3014 RMK A01 T00011007  RH  095%=      5-min Rain = 0
KAM1 141759Z 34013KT 00/M01 A3014 RMK A01 T00011006  RH  095%=      5-min Rain = 0
KAM1 141800Z 34012KT 00/M01 A3014 RMK A01 T00011006  RH  095%=      5-min Rain = 0
KAM1 141801Z 34013KT 00/M01 A3014 RMK A01 T00011006  RH  095%=      5-min Rain = 0
KAM1 141802Z 34012KT 00/M01 A3014 RMK A01 T00021006  RH  095%=      5-min Rain = 0
KAM1 141803Z 34012KT 00/M01 A3014 RMK A01 T00021006  RH  095%=      5-min Rain = 0
KAM1 141804Z 34012KT 00/M01 A3014 RMK A01 T00021006  RH  095%=      5-min Rain = 0
KAM1 141805Z 34013KT 00/M01 A3014 RMK A01 T00021006  RH  095%=      5-min Rain = 0
KAM1 141806Z 34013KT 00/M01 A3014 RMK A01 T00021006  RH  095%=      5-min Rain = 0
KAM1 141807Z 34013KT 00/M01 A3014 RMK A01 T00021005  RH  095%=      5-min Rain = 0
KAM1 141808Z 34013KT 00/M01 A3014 RMK A01 T00021005  RH  095%=      5-min Rain = 0
KAM1 141809Z 34012KT 00/M01 A3014 RMK A01 T00021005  RH  095%=      5-min Rain = 0
KAM1 141810Z 34011KT 00/M01 A3014 RMK A01 T00031005  RH  095%=      5-min Rain = 0
KAM1 141811Z 33013KT 00/M01 A3014 RMK A01 T00031005  RH  095%=      5-min Rain = 0
KAM1 141812Z 34014KT 00/M00 A3014 RMK A01 T00031004  RH  095%=      5-min Rain = 0
KAM1 141813Z 34013KT 00/M01 A3014 RMK A01 T00031005  RH  095%=      5-min Rain = 0
KAM1 141814Z 35012G17KT 00/M01 A3014 RMK A01 T00031005  RH  094%=      5-min Rain = 0
KAM1 141815Z 35013KT 00/M01 A3014 RMK A01 T00041005  RH  094%=      5-min Rain = 0
KAM1 141816Z 35013KT 00/M01 A3014 RMK A01 T00041005  RH  094%=      5-min Rain = 0
KAM1 141817Z 35013KT 00/M01 A3014 RMK A01 T00041005  RH  094%=      5-min Rain = 0
KAM1 141818Z 35013KT 00/M01 A3014 RMK A01 T00041005  RH  094%=      5-min Rain = 0
KAM1 141819Z 35010KT 01/M01 A3014 RMK A01 T00051005  RH  093%=      5-min Rain = 0
KAM1 141820Z 35012KT 01/M01 A3014 RMK A01 T00051005  RH  093%=      5-min Rain = 0
KAM1 141821Z 36013KT 01/M01 A3014 RMK A01 T00051005  RH  093%=      5-min Rain = 0
KAM1 141822Z 36011KT 01/M01 A3014 RMK A01 T00051005  RH  093%=      5-min Rain = 0
KAM1 141823Z 00013KT 01/M01 A3014 RMK A01 T00051005  RH  093%=      5-min Rain = 0
KAM1 141824Z 35013KT 01/M01 A3014 RMK A01 T00061005  RH  093%=      5-min Rain = 0
KAM1 141825Z 00013KT 01/M01 A3014 RMK A01 T00061006  RH  092%=      5-min Rain = 0
KAM1 141826Z 01013KT 01/M01 A3014 RMK A01 T00061006  RH  092%=      5-min Rain = 0
KAM1 141827Z 00013KT 01/M01 A3014 RMK A01 T00061007  RH  091%=      5-min Rain = 0
KAM1 141828Z 36015KT 01/M01 A3014 RMK A01 T00061007  RH  091%=      5-min Rain = 0
KAM1 141829Z 36014KT 01/M01 A3014 RMK A01 T00061007  RH  091%=      5-min Rain = 0
KAM1 141830Z 36014KT 01/M01 A3014 RMK A01 T00071007  RH  091%=      5-min Rain = 0
KAM1 141831Z 36016KT 01/M01 A3014 RMK A01 T00071007  RH  090%=      5-min Rain = 0
KAM1 141832Z 35016KT 01/M01 A3014 RMK A01 T00071007  RH  090%=      5-min Rain = 0
KAM1 141833Z 00016KT 01/M01 A3014 RMK A01 T00071008  RH  090%=      5-min Rain = 0
KAM1 141834Z 36014KT 01/M01 A3014 RMK A01 T00071008  RH  090%=      5-min Rain = 0
KAM1 141835Z 36016KT 01/M01 A3014 RMK A01 T00071008  RH  090%=      5-min Rain = 0
KAM1 141836Z 36015KT 01/M01 A3014 RMK A01 T00071008  RH  090%=      5-min Rain = 0
KAM1 141837Z 36015G20KT 01/M01 A3014 RMK A01 T00071008  RH  090%=      5-min Rain = 0
KAM1 141838Z 36018G23KT 01/M01 A3014 RMK A01 T00071008  RH  089%=      5-min Rain = 0
KAM1 141839Z 01017KT 01/M01 A3014 RMK A01 T00071010  RH  089%=      5-min Rain = 0
KAM1 141840Z 35018KT 01/M01 A3014 RMK A01 T00071010  RH  088%=      5-min Rain = 0
KAM1 141841Z 00016KT 01/M01 A3014 RMK A01 T00071011  RH  088%=      5-min Rain = 0
KAM1 141842Z 01018KT 01/M01 A3014 RMK A01 T00071010  RH  088%=      5-min Rain = 0
KAM1 141843Z 00015KT 01/M01 A3014 RMK A01 T00081009  RH  089%=      5-min Rain = 0
KAM1 141844Z 36017KT 01/M01 A3014 RMK A01 T00081008  RH  089%=      5-min Rain = 0
KAM1 141845Z 01015KT 01/M01 A3014 RMK A01 T00081009  RH  089%=      5-min Rain = 0
KAM1 141846Z 00014KT 01/M01 A3014 RMK A01 T00081009  RH  089%=      5-min Rain = 0
KAM1 141847Z 00017KT 01/M01 A3014 RMK A01 T00081009  RH  089%=      5-min Rain = 0
KAM1 141848Z 00018KT 01/M01 A3014 RMK A01 T00071010  RH  088%=      5-min Rain = 0
KAM1 141849Z 01014KT 01/M01 A3014 RMK A01 T00071011  RH  088%=      5-min Rain = 0
KAM1 141850Z 01015KT 01/M01 A3014 RMK A01 T00071010  RH  088%=      5-min Rain = 0
KAM1 141851Z 01017KT 01/M01 A3014 RMK A01 T00071011  RH  088%=      5-min Rain = 0
KAM1 141852Z 01018KT 01/M01 A3014 RMK A01 T00071012  RH  087%=      5-min Rain = 0
KAM1 141853Z 01017KT 01/M01 A3014 RMK A01 T00071012  RH  087%=      5-min Rain = 0
KAM1 141854Z 01018KT 01/M01 A3014 RMK A01 T00071012  RH  087%=      5-min Rain = 0
KAM1 141855Z 01017KT 01/M01 A3014 RMK A01 T00071011  RH  087%=      5-min Rain = 0
KAM1 141856Z 01016KT 01/M01 A3014 RMK A01 T00081010  RH  088%=      5-min Rain = 0
KAM1 141857Z 01014KT 01/M01 A3014 RMK A01 T00081010  RH  088%=      5-min Rain = 0
KAM1 141858Z 01017G22KT 01/M01 A3014 RMK A01 T00081009  RH  088%=      5-min Rain = 0
KAM1 141859Z 00020KT 01/M01 A3014 RMK A01 T00071010  RH  088%=      5-min Rain = 0
KAM1 141900Z 00017KT 01/M01 A3014 RMK A01 T00071011  RH  088%=      5-min Rain = 0
KAM1 141901Z 00014KT 01/M01 A3014 RMK A01 T00071010  RH  089%=      5-min Rain = 0
KAM1 141902Z 00012KT 01/M01 A3014 RMK A01 T00061009  RH  090%=      5-min Rain = 0
KAM1 141903Z 01015G20KT 01/M01 A3014 RMK A01 T00061008  RH  090%=      5-min Rain = 0
KAM1 141904Z 36015KT 01/M01 A3014 RMK A01 T00061008  RH  090%=      5-min Rain = 0
KAM1 141905Z 00015KT 01/M01 A3014 RMK A01 T00061009  RH  090%=      5-min Rain = 0
KAM1 141906Z 36019KT 01/M01 A3014 RMK A01 T00061009  RH  089%=      5-min Rain = 0
KAM1 141907Z 36019G24KT 01/M01 A3014 RMK A01 T00061010  RH  089%=      5-min Rain = 0
KAM1 141908Z 36017KT 01/M01 A3014 RMK A01 T00071011  RH  088%=      5-min Rain = 0
KAM1 141909Z 36016G22KT 01/M01 A3014 RMK A01 T00061011  RH  088%=      5-min Rain = 0
KAM1 141910Z 00016KT 01/M01 A3014 RMK A01 T00071010  RH  088%=      5-min Rain = 0
KAM1 141911Z 36017G23KT 01/M01 A3013 RMK A01 T00071010  RH  088%=      5-min Rain = 0
KAM1 141912Z 36017KT 01/M01 A3014 RMK A01 T00071011  RH  088%=      5-min Rain = 0
KAM1 141913Z 00016KT 01/M01 A3014 RMK A01 T00071010  RH  088%=      5-min Rain = 0
KAM1 141914Z 00016KT 01/M01 A3013 RMK A01 T00081010  RH  088%=      5-min Rain = 0
KAM1 141915Z 36015G20KT 01/M01 A3014 RMK A01 T00081010  RH  088%=      5-min Rain = 0
KAM1 141916Z 36017KT 01/M01 A3013 RMK A01 T00091009  RH  088%=      5-min Rain = 0
KAM1 141917Z 00016KT 01/M01 A3014 RMK A01 T00091011  RH  087%=      5-min Rain = 0
KAM1 141918Z 35015KT 01/M01 A3013 RMK A01 T00091011  RH  087%=      5-min Rain = 0
KAM1 141919Z 00014G20KT 01/M01 A3014 RMK A01 T00091011  RH  087%=      5-min Rain = 0
KAM1 141920Z 01021KT 01/M01 A3014 RMK A01 T00091010  RH  087%=      5-min Rain = 0
KAM1 141921Z 00019G24KT 01/M01 A3014 RMK A01 T00091012  RH  086%=      5-min Rain = 0
KAM1 141922Z 01015KT 01/M01 A3014 RMK A01 T00091012  RH  086%=      5-min Rain = 0
KAM1 141923Z 36020KT 01/M01 A3014 RMK A01 T00091012  RH  086%=      5-min Rain = 0
KAM1 141924Z 36015G20KT 01/M01 A3014 RMK A01 T00101013  RH  085%=      5-min Rain = 0
KAM1 141925Z 01021KT 01/M01 A3014 RMK A01 T00101012  RH  085%=      5-min Rain = 0
KAM1 141926Z 35019G25KT 01/M01 A3014 RMK A01 T00101014  RH  085%=      5-min Rain = 0
KAM1 141927Z 36021KT 01/M01 A3013 RMK A01 T00091014  RH  084%=      5-min Rain = 0
KAM1 141928Z 01022KT 01/M02 A3014 RMK A01 T00091016  RH  084%=      5-min Rain = 0
KAM1 141929Z 36019KT 01/M02 A3013 RMK A01 T00091016  RH  083%=      5-min Rain = 0
KAM1 141930Z 35018G24KT 01/M02 A3014 RMK A01 T00091015  RH  084%=      5-min Rain = 0
KAM1 141931Z 36020KT 01/M02 A3014 RMK A01 T00091015  RH  084%=      5-min Rain = 0
KAM1 141932Z 00020G25KT 01/M01 A3014 RMK A01 T00081014  RH  085%=      5-min Rain = 0
KAM1 141933Z 01018KT 01/M01 A3014 RMK A01 T00081013  RH  086%=      5-min Rain = 0
KAM1 141934Z 01019KT 01/M01 A3014 RMK A01 T00081013  RH  086%=      5-min Rain = 0
KAM1 141935Z 01017KT 01/M01 A3014 RMK A01 T00071013  RH  087%=      5-min Rain = 0
KAM1 141936Z 01016G21KT 01/M01 A3014 RMK A01 T00061012  RH  088%=      5-min Rain = 0
KAM1 141937Z 01019G24KT 01/M01 A3014 RMK A01 T00061011  RH  088%=      5-min Rain = 0
KAM1 141938Z 01017KT 01/M01 A3014 RMK A01 T00061011  RH  089%=      5-min Rain = 0
KAM1 141939Z 01022KT 01/M01 A3014 RMK A01 T00051010  RH  089%=      5-min Rain = 0
KAM1 141940Z 01017KT 01/M01 A3014 RMK A01 T00051011  RH  089%=      5-min Rain = 0
KAM1 141941Z 00018KT 00/M01 A3014 RMK A01 T00041011  RH  090%=      5-min Rain = 0
KAM1 141942Z 36016KT 00/M01 A3014 RMK A01 T00031011  RH  090%=      5-min Rain = 0
KAM1 141943Z 36017KT 00/M01 A3014 RMK A01 T00031010  RH  091%=      5-min Rain = 0
KAM1 141944Z 36018KT 00/M01 A3014 RMK A01 T00031011  RH  091%=      5-min Rain = 0
KAM1 141945Z 00019KT 00/M01 A3014 RMK A01 T00021011  RH  091%=      5-min Rain = 0
KAM1 141946Z 36017KT 00/M01 A3014 RMK A01 T00011012  RH  091%=      5-min Rain = 0
KAM1 141947Z 36019KT 00/01 A3014 RMK A01 T00000-12  RH  092%=      5-min Rain = 0
KAM1 141948Z 35017KT 00/01 A3014 RMK A01 T00-00-12  RH  092%=      5-min Rain = 0
KAM1 141949Z 00015KT M00/M01 A3014 RMK A01 T10011012  RH  092%=      5-min Rain = 0
KAM1 141950Z 00013KT M00/M01 A3014 RMK A01 T10011012  RH  093%=      5-min Rain = 0
KAM1 141951Z 00015KT M00/M01 A3014 RMK A01 T10011011  RH  093%=      5-min Rain = 0
KAM1 141952Z 01017KT M00/M01 A3014 RMK A01 T10011011  RH  093%=      5-min Rain = 0
KAM1 141953Z 00015G20KT M00/M01 A3014 RMK A01 T10011011  RH  093%=      5-min Rain = 0
KAM1 141954Z 00015KT M00/M01 A3014 RMK A01 T10011010  RH  093%=      5-min Rain = 0
KAM1 141955Z 36014KT M00/M01 A3013 RMK A01 T10011011  RH  094%=      5-min Rain = 0
KAM1 141956Z 00016KT M00/M01 A3014 RMK A01 T10011010  RH  094%=      5-min Rain = 0
KAM1 141957Z 00016KT M00/M01 A3014 RMK A01 T10011010  RH  094%=      5-min Rain = 0
KAM1 141958Z 01016KT M00/M01 A3014 RMK A01 T10011010  RH  094%=      5-min Rain = 0
KAM1 141959Z 01016KT M00/M01 A3014 RMK A01 T10011010  RH  094%=      5-min Rain = 0
KAM1 142000Z 01015KT 00/01 A3014 RMK A01 T00-000-9  RH  094%=      5-min Rain = 0.01
KAM1 142001Z 01016KT 00/01 A3014 RMK A01 T00-000-9  RH  094%=      5-min Rain = 0
KAM1 142002Z 36016KT 00/01 A3014 RMK A01 T00-000-9  RH  094%=      5-min Rain = 0
KAM1 142003Z 00019KT 00/01 A3013 RMK A01 T00-000-9  RH  094%=      5-min Rain = 0
KAM1 142004Z 01022KT 00/01 A3014 RMK A01 T00-000-9  RH  094%=      5-min Rain = 0
KAM1 142005Z 00018G23KT 00/01 A3013 RMK A01 T00-000-9  RH  094%=      5-min Rain = 0
KAM1 142006Z 01019G24KT 00/01 A3014 RMK A01 T00-000-9  RH  094%=      5-min Rain = 0
KAM1 142007Z 01019KT 00/01 A3013 RMK A01 T00-000-9  RH  094%=      5-min Rain = 0
KAM1 142008Z 01018KT M00/M01 A3013 RMK A01 T10011010  RH  094%=      5-min Rain = 0
KAM1 142009Z 00018KT 00/01 A3013 RMK A01 T00-000-9  RH  094%=      5-min Rain = 0
KAM1 142010Z 00019KT 00/01 A3013 RMK A01 T00-000-9  RH  094%=      5-min Rain = 0
KAM1 142011Z 00020G25KT 00/01 A3013 RMK A01 T00-000-9  RH  094%=      5-min Rain = 0
KAM1 142012Z 00018KT 00/01 A3013 RMK A01 T000000-9  RH  094%=      5-min Rain = 0
KAM1 142013Z 01019KT 00/01 A3013 RMK A01 T000000-9  RH  094%=      5-min Rain = 0
KAM1 142014Z 01016KT 00/01 A3013 RMK A01 T000000-9  RH  094%=      5-min Rain = 0
KAM1 142015Z 00018KT 00/M01 A3013 RMK A01 T00011009  RH  093%=      5-min Rain = 0
KAM1 142016Z 00016KT 00/M01 A3013 RMK A01 T00011009  RH  093%=      5-min Rain = 0
KAM1 142017Z 00017KT 00/M01 A3013 RMK A01 T00011009  RH  093%=      5-min Rain = 0
KAM1 142018Z 01014KT 00/M01 A3013 RMK A01 T00011009  RH  093%=      5-min Rain = 0
KAM1 142019Z 01014KT 00/M01 A3013 RMK A01 T00021009  RH  093%=      5-min Rain = 0
KAM1 142020Z 00014KT 00/M01 A3013 RMK A01 T00021008  RH  093%=      5-min Rain = 0
KAM1 142021Z 01017KT 00/M01 A3013 RMK A01 T00021009  RH  093%=      5-min Rain = 0
KAM1 142022Z 01013KT 00/M01 A3013 RMK A01 T00021009  RH  092%=      5-min Rain = 0
KAM1 142023Z 01014KT 00/M01 A3012 RMK A01 T00031009  RH  092%=      5-min Rain = 0
KAM1 142024Z 01015KT 00/M01 A3013 RMK A01 T00031009  RH  092%=      5-min Rain = 0
KAM1 142025Z 01016KT 00/M01 A3012 RMK A01 T00031009  RH  092%=      5-min Rain = 0
KAM1 142026Z 01013KT 00/M01 A3012 RMK A01 T00031009  RH  092%=      5-min Rain = 0
KAM1 142027Z 01013KT 00/M01 A3012 RMK A01 T00041008  RH  092%=      5-min Rain = 0
KAM1 142028Z 01014KT 00/M01 A3012 RMK A01 T00041008  RH  092%=      5-min Rain = 0
KAM1 142029Z 01013KT 00/M01 A3012 RMK A01 T00041008  RH  091%=      5-min Rain = 0
KAM1 142030Z 01012KT 00/M01 A3012 RMK A01 T00041008  RH  091%=      5-min Rain = 0
KAM1 142031Z 02012KT 01/M01 A3012 RMK A01 T00051008  RH  091%=      5-min Rain = 0
KAM1 142032Z 01013KT 01/M01 A3012 RMK A01 T00051007  RH  091%=      5-min Rain = 0
KAM1 142033Z 01014KT 01/M01 A3012 RMK A01 T00051007  RH  091%=      5-min Rain = 0
KAM1 142034Z 01014KT 01/M01 A3012 RMK A01 T00061007  RH  091%=      5-min Rain = 0
KAM1 142035Z 01014KT 01/M01 A3012 RMK A01 T00061008  RH  091%=      5-min Rain = 0
KAM1 142036Z 02012KT 01/M01 A3012 RMK A01 T00061008  RH  091%=      5-min Rain = 0
KAM1 142037Z 01012KT 01/M01 A3012 RMK A01 T00061007  RH  090%=      5-min Rain = 0
KAM1 142038Z 02018G23KT 01/M01 A3012 RMK A01 T00071007  RH  090%=      5-min Rain = 0
KAM1 142039Z 02016G22KT 01/M01 A3012 RMK A01 T00081009  RH  089%=      5-min Rain = 0
KAM1 142040Z 02016KT 01/M01 A3012 RMK A01 T00091009  RH  088%=      5-min Rain = 0
KAM1 142041Z 02018KT 01/M01 A3012 RMK A01 T00091010  RH  087%=      5-min Rain = 0
KAM1 142042Z 01017KT 01/M01 A3012 RMK A01 T00101010  RH  087%=      5-min Rain = 0
KAM1 142043Z 01018KT 01/M01 A3012 RMK A01 T00101011  RH  086%=      5-min Rain = 0
KAM1 142044Z 02018KT 01/M01 A3012 RMK A01 T00101011  RH  086%=      5-min Rain = 0
KAM1 142045Z 02018KT 01/M01 A3012 RMK A01 T00101011  RH  086%=      5-min Rain = 0
KAM1 142046Z 01020KT 01/M01 A3012 RMK A01 T00101012  RH  085%=      5-min Rain = 0
KAM1 142047Z 01017KT 01/M01 A3012 RMK A01 T00111012  RH  085%=      5-min Rain = 0
KAM1 142048Z 02016G21KT 01/M01 A3012 RMK A01 T00111012  RH  085%=      5-min Rain = 0
KAM1 142049Z 02018G24KT 01/M01 A3012 RMK A01 T00111011  RH  085%=      5-min Rain = 0
KAM1 142050Z 01018G23KT 01/M01 A3012 RMK A01 T00121011  RH  084%=      5-min Rain = 0
KAM1 142051Z 02023KT 01/M01 A3012 RMK A01 T00121012  RH  084%=      5-min Rain = 0
KAM1 142052Z 02023G29KT 01/M01 A3012 RMK A01 T00131014  RH  083%=      5-min Rain = 0
KAM1 142053Z 02022G27KT 01/M01 A3012 RMK A01 T00131014  RH  082%=      5-min Rain = 0
KAM1 142054Z 02023G29KT 01/M01 A3012 RMK A01 T00131014  RH  083%=      5-min Rain = 0
KAM1 142055Z 01020G27KT 01/M01 A3012 RMK A01 T00121014  RH  083%=      5-min Rain = 0
KAM1 142056Z 01022G27KT 01/M01 A3012 RMK A01 T00121013  RH  083%=      5-min Rain = 0
KAM1 142057Z 01023KT 01/M01 A3012 RMK A01 T00111014  RH  083%=      5-min Rain = 0
KAM1 142058Z 02022G27KT 01/M01 A3012 RMK A01 T00111014  RH  083%=      5-min Rain = 0
KAM1 142059Z 02019G24KT 01/M01 A3012 RMK A01 T00111013  RH  084%=      5-min Rain = 0
KAM1 142100Z 01020G26KT 01/M01 A3012 RMK A01 T00111012  RH  084%=      5-min Rain = 0
KAM1 142101Z 01020G25KT 01/M01 A3012 RMK A01 T00111012  RH  085%=      5-min Rain = 0
KAM1 142102Z 02021KT 01/M01 A3012 RMK A01 T00111012  RH  085%=      5-min Rain = 0
KAM1 142103Z 02022KT 01/M01 A3012 RMK A01 T00111012  RH  085%=      5-min Rain = 0
KAM1 142104Z 02019KT 01/M01 A3012 RMK A01 T00111012  RH  085%=      5-min Rain = 0
KAM1 142105Z 01019KT 01/M01 A3012 RMK A01 T00111011  RH  085%=      5-min Rain = 0
KAM1 142106Z 01017G23KT 01/M01 A3012 RMK A01 T00121010  RH  085%=      5-min Rain = 0
KAM1 142107Z 01020KT 01/M01 A3012 RMK A01 T00111010  RH  086%=      5-min Rain = 0
KAM1 142108Z 01017KT 01/M01 A3012 RMK A01 T00111010  RH  085%=      5-min Rain = 0
KAM1 142109Z 01015KT 01/M01 A3012 RMK A01 T00121009  RH  086%=      5-min Rain = 0
KAM1 142110Z 00020G25KT 01/M01 A3012 RMK A01 T00121009  RH  086%=      5-min Rain = 0
KAM1 142111Z 01021G28KT 01/M01 A3012 RMK A01 T00121010  RH  085%=      5-min Rain = 0
KAM1 142112Z 01021KT 01/M01 A3012 RMK A01 T00121011  RH  085%=      5-min Rain = 0
KAM1 142113Z 01021KT 01/M01 A3012 RMK A01 T00121011  RH  085%=      5-min Rain = 0
KAM1 142114Z 01022KT 01/M01 A3012 RMK A01 T00111011  RH  085%=      5-min Rain = 0
KAM1 142115Z 01020G25KT 01/M01 A3012 RMK A01 T00111011  RH  085%=      5-min Rain = 0
KAM1 142116Z 00020KT 01/M01 A3012 RMK A01 T00111010  RH  086%=      5-min Rain = 0
KAM1 142117Z 00019KT 01/M01 A3012 RMK A01 T00111010  RH  086%=      5-min Rain = 0
KAM1 142118Z 00019KT 01/M01 A3012 RMK A01 T00101010  RH  086%=      5-min Rain = 0
KAM1 142119Z 00018G23KT 01/M01 A3012 RMK A01 T00111009  RH  087%=      5-min Rain = 0
KAM1 142120Z 35017KT 01/M01 A3012 RMK A01 T00111009  RH  087%=      5-min Rain = 0
KAM1 142121Z 01022G27KT 01/M01 A3012 RMK A01 T00111008  RH  087%=      5-min Rain = 0
KAM1 142122Z 36020KT 01/M01 A3012 RMK A01 T00101009  RH  087%=      5-min Rain = 0
KAM1 142123Z 00018G25KT 01/M01 A3012 RMK A01 T00101010  RH  087%=      5-min Rain = 0
KAM1 142124Z 36019KT 01/M01 A3012 RMK A01 T00111009  RH  087%=      5-min Rain = 0
KAM1 142125Z 36018KT 01/M01 A3012 RMK A01 T00101009  RH  087%=      5-min Rain = 0
KAM1 142126Z 00018KT 01/M01 A3012 RMK A01 T00111008  RH  088%=      5-min Rain = 0
KAM1 142127Z 00021KT 01/M01 A3012 RMK A01 T00101008  RH  088%=      5-min Rain = 0
KAM1 142128Z 36019G24KT 01/M01 A3012 RMK A01 T00101007  RH  088%=      5-min Rain = 0
KAM1 142129Z 00019KT 01/M01 A3012 RMK A01 T00111007  RH  088%=      5-min Rain = 0
KAM1 142130Z 36017KT 01/M01 A3012 RMK A01 T00111006  RH  089%=      5-min Rain = 0
KAM1 142131Z 00014KT 01/M01 A3012 RMK A01 T00111005  RH  089%=      5-min Rain = 0
KAM1 142132Z 00014KT 01/M01 A3012 RMK A01 T00111005  RH  089%=      5-min Rain = 0
KAM1 142133Z 36017KT 01/M01 A3012 RMK A01 T00111005  RH  090%=      5-min Rain = 0
KAM1 142134Z 36018G23KT 01/M01 A3012 RMK A01 T00111005  RH  089%=      5-min Rain = 0
KAM1 142135Z 36019KT 01/M01 A3012 RMK A01 T00111005  RH  089%=      5-min Rain = 0
KAM1 142136Z 36016KT 01/M01 A3012 RMK A01 T00101006  RH  089%=      5-min Rain = 0
KAM1 142137Z 36016KT 01/M01 A3012 RMK A01 T00111005  RH  089%=      5-min Rain = 0
KAM1 142138Z 35016KT 01/M00 A3012 RMK A01 T00111004  RH  090%=      5-min Rain = 0
KAM1 142139Z 35015KT 01/M00 A3012 RMK A01 T00111004  RH  090%=      5-min Rain = 0
KAM1 142140Z 35017KT 01/M00 A3012 RMK A01 T00111004  RH  090%=      5-min Rain = 0
KAM1 142141Z 00017KT 01/M00 A3012 RMK A01 T00111003  RH  090%=      5-min Rain = 0
KAM1 142142Z 36015KT 01/M00 A3012 RMK A01 T00111004  RH  090%=      5-min Rain = 0
KAM1 142143Z 00014KT 01/M00 A3012 RMK A01 T00111003  RH  090%=      5-min Rain = 0
KAM1 142144Z 00014KT 01/M00 A3012 RMK A01 T00121003  RH  090%=      5-min Rain = 0
KAM1 142145Z 36012KT 01/M00 A3012 RMK A01 T00121003  RH  090%=      5-min Rain = 0
KAM1 142146Z 00011KT 01/M00 A3012 RMK A01 T00121002  RH  091%=      5-min Rain = 0
KAM1 142147Z 35015KT 01/M00 A3012 RMK A01 T00121001  RH  091%=      5-min Rain = 0
KAM1 142148Z 36015KT 01/M00 A3012 RMK A01 T00121002  RH  090%=      5-min Rain = 0
KAM1 142149Z 36015KT 01/M00 A3012 RMK A01 T00131002  RH  090%=      5-min Rain = 0
KAM1 142150Z 36014KT 01/M00 A3012 RMK A01 T00121003  RH  090%=      5-min Rain = 0
KAM1 142151Z 36015KT 01/M00 A3012 RMK A01 T00121003  RH  090%=      5-min Rain = 0
KAM1 142152Z 35013KT 01/M00 A3012 RMK A01 T00121003  RH  089%=      5-min Rain = 0
KAM1 142153Z 35011KT 01/M00 A3012 RMK A01 T00131003  RH  089%=      5-min Rain = 0
KAM1 142154Z 35011KT 01/M00 A3012 RMK A01 T00131002  RH  090%=      5-min Rain = 0
KAM1 142155Z 35010KT 01/M00 A3012 RMK A01 T00141001  RH  090%=      5-min Rain = 0
KAM1 142156Z 35011KT 01/M00 A3011 RMK A01 T00141001  RH  090%=      5-min Rain = 0
KAM1 142157Z 35012KT 01/M00 A3011 RMK A01 T00141001  RH  090%=      5-min Rain = 0
KAM1 142158Z 36009KT 01/M00 A3011 RMK A01 T00141002  RH  090%=      5-min Rain = 0
KAM1 142159Z 36011KT 01/M00 A3011 RMK A01 T00141001  RH  090%=      5-min Rain = 0
KAM1 142200Z 36011KT 01/M00 A3011 RMK A01 T00141001  RH  090%=      5-min Rain = 0
KAM1 142201Z 35011KT 02/M00 A3011 RMK A01 T00151001  RH  089%=      5-min Rain = 0
KAM1 142202Z 35011KT 02/M00 A3011 RMK A01 T00151002  RH  089%=      5-min Rain = 0
KAM1 142203Z 35010KT 02/M00 A3011 RMK A01 T00151001  RH  089%=      5-min Rain = 0
KAM1 142204Z 35012KT 02/M00 A3011 RMK A01 T00151001  RH  089%=      5-min Rain = 0
KAM1 142205Z 35010KT 02/M00 A3011 RMK A01 T00151002  RH  089%=      5-min Rain = 0
KAM1 142206Z 35010KT 02/M00 A3011 RMK A01 T00151002  RH  088%=      5-min Rain = 0
KAM1 142207Z 35010KT 02/M00 A3011 RMK A01 T00161002  RH  088%=      5-min Rain = 0
KAM1 142208Z 35011KT 02/M00 A3011 RMK A01 T00161002  RH  088%=      5-min Rain = 0
KAM1 142209Z 34010KT 02/M00 A3011 RMK A01 T00161001  RH  088%=      5-min Rain = 0
KAM1 142210Z 34010KT 02/M00 A3011 RMK A01 T00171001  RH  088%=      5-min Rain = 0
KAM1 142211Z 34009KT 02/M00 A3011 RMK A01 T00161001  RH  088%=      5-min Rain = 0
KAM1 142212Z 34010KT 02/M00 A3011 RMK A01 T00171001  RH  088%=      5-min Rain = 0
KAM1 142213Z 34009KT 02/M00 A3012 RMK A01 T00161001  RH  088%=      5-min Rain = 0
KAM1 142214Z 34009KT 02/M00 A3012 RMK A01 T00161001  RH  088%=      5-min Rain = 0
KAM1 142215Z 34010KT 02/M00 A3012 RMK A01 T00171001  RH  088%=      5-min Rain = 0
KAM1 142216Z 34009KT 02/M00 A3012 RMK A01 T00171001  RH  088%=      5-min Rain = 0
KAM1 142217Z 34011KT 02/M00 A3012 RMK A01 T00171002  RH  087%=      5-min Rain = 0
KAM1 142218Z 35010KT 02/M00 A3012 RMK A01 T00171002  RH  087%=      5-min Rain = 0
KAM1 142219Z 34012KT 02/M00 A3011 RMK A01 T00171003  RH  086%=      5-min Rain = 0
KAM1 142220Z 34010KT 02/M00 A3011 RMK A01 T00181003  RH  086%=      5-min Rain = 0
KAM1 142221Z 34011KT 02/M00 A3012 RMK A01 T00171003  RH  086%=      5-min Rain = 0
KAM1 142222Z 34010KT 02/M00 A3012 RMK A01 T00181002  RH  086%=      5-min Rain = 0
KAM1 142223Z 34011KT 02/M00 A3011 RMK A01 T00181002  RH  086%=      5-min Rain = 0
KAM1 142224Z 34011KT 02/M00 A3011 RMK A01 T00181004  RH  085%=      5-min Rain = 0
KAM1 142225Z 33009KT 02/M00 A3012 RMK A01 T00181004  RH  085%=      5-min Rain = 0
KAM1 142226Z 34008KT 02/M00 A3012 RMK A01 T00191002  RH  086%=      5-min Rain = 0
KAM1 142227Z 34009KT 02/M00 A3012 RMK A01 T00191002  RH  086%=      5-min Rain = 0
KAM1 142228Z 34009KT 02/M00 A3012 RMK A01 T00191002  RH  086%=      5-min Rain = 0
KAM1 142229Z 34010KT 02/M00 A3012 RMK A01 T00191002  RH  086%=      5-min Rain = 0
KAM1 142230Z 34011KT 02/M00 A3012 RMK A01 T00191003  RH  085%=      5-min Rain = 0
KAM1 142231Z 33011KT 02/M00 A3012 RMK A01 T00201004  RH  084%=      5-min Rain = 0
KAM1 142232Z 34011KT 02/M01 A3012 RMK A01 T00201005  RH  084%=      5-min Rain = 0
KAM1 142233Z 34011KT 02/M01 A3012 RMK A01 T00201005  RH  084%=      5-min Rain = 0
KAM1 142234Z 34010KT 02/M01 A3012 RMK A01 T00201005  RH  084%=      5-min Rain = 0
KAM1 142235Z 34011KT 02/M00 A3012 RMK A01 T00201004  RH  084%=      5-min Rain = 0
KAM1 142236Z 34013KT 02/M01 A3012 RMK A01 T00211005  RH  083%=      5-min Rain = 0
KAM1 142237Z 34013KT 02/M01 A3012 RMK A01 T00211007  RH  082%=      5-min Rain = 0
KAM1 142238Z 34011G16KT 02/M01 A3012 RMK A01 T00221006  RH  082%=      5-min Rain = 0
KAM1 142239Z 34012KT 02/M01 A3012 RMK A01 T00221006  RH  082%=      5-min Rain = 0
KAM1 142240Z 34012KT 02/M01 A3012 RMK A01 T00221006  RH  082%=      5-min Rain = 0
KAM1 142241Z 35014KT 02/M01 A3012 RMK A01 T00231006  RH  081%=      5-min Rain = 0
KAM1 142242Z 34013KT 02/M01 A3012 RMK A01 T00231006  RH  081%=      5-min Rain = 0
KAM1 142243Z 34013KT 02/M01 A3011 RMK A01 T00231007  RH  081%=      5-min Rain = 0
KAM1 142244Z 35015KT 02/M01 A3012 RMK A01 T00231008  RH  080%=      5-min Rain = 0
KAM1 142245Z 35012KT 03/M01 A3012 RMK A01 T00251008  RH  079%=      5-min Rain = 0
KAM1 142246Z 34014KT 03/M01 A3011 RMK A01 T00251008  RH  079%=      5-min Rain = 0
KAM1 142247Z 34013KT 03/M01 A3011 RMK A01 T00251008  RH  079%=      5-min Rain = 0
KAM1 142248Z 34015KT 03/M01 A3011 RMK A01 T00251008  RH  079%=      5-min Rain = 0
KAM1 142249Z 35014KT 03/M01 A3011 RMK A01 T00261009  RH  078%=      5-min Rain = 0
KAM1 142250Z 34013KT 03/M01 A3011 RMK A01 T00261009  RH  078%=      5-min Rain = 0
KAM1 142251Z 35012KT 03/M01 A3011 RMK A01 T00271008  RH  078%=      5-min Rain = 0
KAM1 142252Z 35013KT 03/M01 A3011 RMK A01 T00271009  RH  077%=      5-min Rain = 0
KAM1 142253Z 35014KT 03/M01 A3011 RMK A01 T00281009  RH  077%=      5-min Rain = 0
KAM1 142254Z 35015G20KT 03/M01 A3011 RMK A01 T00281009  RH  076%=      5-min Rain = 0
KAM1 142255Z 35014KT 03/M01 A3011 RMK A01 T00291010  RH  076%=      5-min Rain = 0
KAM1 142256Z 35010KT 03/M01 A3011 RMK A01 T00291009  RH  076%=      5-min Rain = 0
KAM1 142257Z 35013KT 03/M01 A3011 RMK A01 T00291008  RH  077%=      5-min Rain = 0
KAM1 142258Z 35013KT 03/M01 A3011 RMK A01 T00291008  RH  077%=      5-min Rain = 0
KAM1 142259Z 35013KT 03/M01 A3011 RMK A01 T00291009  RH  076%=      5-min Rain = 0
KAM1 142300Z 35012KT 03/M01 A3011 RMK A01 T00291010  RH  075%=      5-min Rain = 0
KAM1 142301Z 35011KT 03/M01 A3011 RMK A01 T00301009  RH  076%=      5-min Rain = 0
KAM1 142302Z 35011KT 03/M01 A3011 RMK A01 T00301008  RH  076%=      5-min Rain = 0
KAM1 142303Z 35011KT 03/M01 A3011 RMK A01 T00301007  RH  077%=      5-min Rain = 0
KAM1 142304Z 35011KT 03/M01 A3011 RMK A01 T00301008  RH  076%=      5-min Rain = 0
KAM1 142305Z 35010KT 03/M01 A3011 RMK A01 T00301008  RH  076%=      5-min Rain = 0
KAM1 142306Z 35009KT 03/M01 A3011 RMK A01 T00301007  RH  076%=      5-min Rain = 0
KAM1 142307Z 35008KT 03/M01 A3011 RMK A01 T00301006  RH  077%=      5-min Rain = 0
KAM1 142308Z 35009KT 03/M01 A3011 RMK A01 T00301006  RH  077%=      5-min Rain = 0
KAM1 142309Z 35009KT 03/M01 A3011 RMK A01 T00301006  RH  077%=      5-min Rain = 0
KAM1 142310Z 35009KT 03/M01 A3011 RMK A01 T00311006  RH  077%=      5-min Rain = 0
KAM1 142311Z 35011KT 03/M01 A3011 RMK A01 T00311007  RH  076%=      5-min Rain = 0
KAM1 142312Z 36009KT 03/M01 A3011 RMK A01 T00321009  RH  075%=      5-min Rain = 0
KAM1 142313Z 35007KT 03/M01 A3011 RMK A01 T00321007  RH  076%=      5-min Rain = 0
KAM1 142314Z 36007KT 03/M01 A3011 RMK A01 T00321005  RH  077%=      5-min Rain = 0
KAM1 142315Z 00009KT 03/M01 A3011 RMK A01 T00321005  RH  076%=      5-min Rain = 0
KAM1 142316Z 36008KT 03/M01 A3011 RMK A01 T00321006  RH  076%=      5-min Rain = 0
KAM1 142317Z 35008KT 03/M01 A3011 RMK A01 T00331006  RH  076%=      5-min Rain = 0
KAM1 142318Z 35007KT 03/M01 A3011 RMK A01 T00331006  RH  076%=      5-min Rain = 0
KAM1 142319Z 36008KT 03/M01 A3011 RMK A01 T00331006  RH  076%=      5-min Rain = 0
KAM1 142320Z 35006KT 03/M01 A3011 RMK A01 T00331005  RH  076%=      5-min Rain = 0
KAM1 142321Z 35006KT 03/M00 A3011 RMK A01 T00331004  RH  076%=      5-min Rain = 0
KAM1 142322Z 34007KT 03/M00 A3011 RMK A01 T00341004  RH  076%=      5-min Rain = 0
KAM1 142323Z 35007KT 03/M00 A3011 RMK A01 T00341004  RH  076%=      5-min Rain = 0
KAM1 142324Z 35007KT 03/M00 A3011 RMK A01 T00341004  RH  076%=      5-min Rain = 0
KAM1 142325Z 36006KT 03/M00 A3011 RMK A01 T00341004  RH  076%=      5-min Rain = 0
KAM1 142326Z 35007KT 04/M00 A3011 RMK A01 T00351003  RH  077%=      5-min Rain = 0
KAM1 142327Z 35006KT 04/M00 A3011 RMK A01 T00351003  RH  076%=      5-min Rain = 0
KAM1 142328Z 35007KT 04/M00 A3011 RMK A01 T00351002  RH  077%=      5-min Rain = 0
KAM1 142329Z 35007KT 04/M00 A3011 RMK A01 T00351002  RH  077%=      5-min Rain = 0
KAM1 142330Z 36006KT 04/M00 A3011 RMK A01 T00351003  RH  076%=      5-min Rain = 0
KAM1 142331Z 35006KT 04/M00 A3012 RMK A01 T00351004  RH  076%=      5-min Rain = 0
KAM1 142332Z 36006KT 04/M00 A3012 RMK A01 T00351004  RH  076%=      5-min Rain = 0
KAM1 142333Z 36006KT 04/M00 A3012 RMK A01 T00351003  RH  076%=      5-min Rain = 0
KAM1 142334Z 36007KT 04/M00 A3012 RMK A01 T00351004  RH  076%=      5-min Rain = 0
KAM1 142335Z 36006KT 04/M00 A3012 RMK A01 T00351004  RH  075%=      5-min Rain = 0
KAM1 142336Z 36006KT 04/M00 A3012 RMK A01 T00351004  RH  076%=      5-min Rain = 0
KAM1 142337Z 35005KT 03/M00 A3012 RMK A01 T00341004  RH  076%=      5-min Rain = 0
KAM1 142338Z 35006KT 03/M00 A3012 RMK A01 T00341003  RH  077%=      5-min Rain = 0
KAM1 142339Z 35006KT 03/M00 A3012 RMK A01 T00341004  RH  077%=      5-min Rain = 0
KAM1 142340Z 35006KT 03/M00 A3012 RMK A01 T00341003  RH  077%=      5-min Rain = 0
KAM1 142341Z 35006KT 03/M00 A3012 RMK A01 T00331004  RH  077%=      5-min Rain = 0
KAM1 142342Z 34005KT 03/M00 A3012 RMK A01 T00331004  RH  077%=      5-min Rain = 0
KAM1 142343Z 35006KT 03/M00 A3012 RMK A01 T00331003  RH  077%=      5-min Rain = 0
KAM1 142344Z 35005KT 03/M01 A3012 RMK A01 T00331005  RH  076%=      5-min Rain = 0
KAM1 142345Z 35006KT 03/M01 A3012 RMK A01 T00331005  RH  076%=      5-min Rain = 0
KAM1 142346Z 35005KT 03/M01 A3012 RMK A01 T00331005  RH  076%=      5-min Rain = 0
KAM1 142347Z 35005KT 03/M01 A3012 RMK A01 T00331005  RH  076%=      5-min Rain = 0
KAM1 142348Z 35005KT 03/M00 A3012 RMK A01 T00331004  RH  076%=      5-min Rain = 0
KAM1 142349Z 34005KT 03/M00 A3012 RMK A01 T00331004  RH  077%=      5-min Rain = 0
KAM1 142350Z 34005KT 03/M00 A3012 RMK A01 T00331004  RH  077%=      5-min Rain = 0
KAM1 142351Z 34005KT 03/M00 A3012 RMK A01 T00331003  RH  077%=      5-min Rain = 0
KAM1 142352Z 34005KT 03/M00 A3012 RMK A01 T00331003  RH  078%=      5-min Rain = 0
KAM1 142353Z 34005KT 03/M00 A3012 RMK A01 T00321003  RH  078%=      5-min Rain = 0
KAM1 142354Z 35006KT 03/M00 A3012 RMK A01 T00321004  RH  077%=      5-min Rain = 0
KAM1 142355Z 34005KT 03/M00 A3012 RMK A01 T00321004  RH  077%=      5-min Rain = 0
KAM1 142356Z 34005KT 03/M00 A3012 RMK A01 T00321004  RH  077%=      5-min Rain = 0
KAM1 142357Z 34005KT 03/M00 A3012 RMK A01 T00321004  RH  077%=      5-min Rain = 0
KAM1 142358Z 34005KT 03/M00 A3012 RMK A01 T00321004  RH  077%=      5-min Rain = 0
KAM1 142359Z 34005KT 03/M00 A3012 RMK A01 T00311004  RH  077%=      5-min Rain = 0
KAM1 150000Z 34005KT 03/M00 A3012 RMK A01 T00311004  RH  078%=      5-min Rain = 0
KAM1 150001Z 34005KT 03/M00 A3012 RMK A01 T00311004  RH  078%=      5-min Rain = 0
KAM1 150002Z 34005KT 03/M00 A3012 RMK A01 T00311004  RH  078%=      5-min Rain = 0
KAM1 150003Z 33006KT 03/M01 A3013 RMK A01 T00311005  RH  078%=      5-min Rain = 0
KAM1 150004Z 33006KT 03/M01 A3013 RMK A01 T00311005  RH  077%=      5-min Rain = 0
KAM1 150005Z 33005KT 03/M01 A3013 RMK A01 T00301005  RH  078%=      5-min Rain = 0
KAM1 150006Z 33005KT 03/M01 A3013 RMK A01 T00301005  RH  078%=      5-min Rain = 0
KAM1 150007Z 33006KT 03/M01 A3013 RMK A01 T00291005  RH  078%=      5-min Rain = 0
KAM1 150008Z 33005KT 03/M01 A3013 RMK A01 T00291005  RH  078%=      5-min Rain = 0
KAM1 150009Z 32005KT 03/M01 A3013 RMK A01 T00291005  RH  078%=      5-min Rain = 0
KAM1 150010Z 32005KT 03/M00 A3013 RMK A01 T00291004  RH  079%=      5-min Rain = 0
KAM1 150011Z 32005KT 03/M00 A3013 RMK A01 T00281004  RH  079%=      5-min Rain = 0
KAM1 150012Z 32005KT 03/M00 A3013 RMK A01 T00281004  RH  079%=      5-min Rain = 0
KAM1 150013Z 32005KT 03/M00 A3013 RMK A01 T00281004  RH  079%=      5-min Rain = 0
KAM1 150014Z 32005KT 03/M00 A3013 RMK A01 T00281004  RH  079%=      5-min Rain = 0
KAM1 150015Z 32006KT 03/M01 A3013 RMK A01 T00281005  RH  079%=      5-min Rain = 0
KAM1 150016Z 32006KT 03/M01 A3013 RMK A01 T00281006  RH  078%=      5-min Rain = 0
KAM1 150017Z 32006KT 03/M01 A3013 RMK A01 T00281006  RH  078%=      5-min Rain = 0
KAM1 150018Z 32006KT 03/M01 A3013 RMK A01 T00281006  RH  078%=      5-min Rain = 0
KAM1 150019Z 32006KT 03/M01 A3013 RMK A01 T00281006  RH  078%=      5-min Rain = 0
KAM1 150020Z 31006KT 03/M01 A3013 RMK A01 T00281006  RH  078%=      5-min Rain = 0
KAM1 150021Z 31006KT 03/M01 A3013 RMK A01 T00281006  RH  078%=      5-min Rain = 0
KAM1 150022Z 31006KT 03/M01 A3013 RMK A01 T00281006  RH  079%=      5-min Rain = 0
KAM1 150023Z 31006KT 03/M01 A3013 RMK A01 T00271006  RH  079%=      5-min Rain = 0
KAM1 150024Z 31006KT 03/M01 A3013 RMK A01 T00271005  RH  079%=      5-min Rain = 0
KAM1 150025Z 31006KT 03/M01 A3013 RMK A01 T00261005  RH  080%=      5-min Rain = 0
KAM1 150026Z 31006KT 03/M01 A3013 RMK A01 T00261005  RH  080%=      5-min Rain = 0
KAM1 150027Z 31006KT 03/M01 A3013 RMK A01 T00261006  RH  080%=      5-min Rain = 0
KAM1 150028Z 31006KT 03/M01 A3013 RMK A01 T00251006  RH  080%=      5-min Rain = 0
KAM1 150029Z 31006KT 03/M01 A3014 RMK A01 T00251006  RH  080%=      5-min Rain = 0
KAM1 150030Z 31006KT 03/M01 A3014 RMK A01 T00251006  RH  080%=      5-min Rain = 0
KAM1 150031Z 31006KT 03/M01 A3014 RMK A01 T00251006  RH  080%=      5-min Rain = 0
KAM1 150032Z 31006KT 02/M01 A3014 RMK A01 T00241006  RH  080%=      5-min Rain = 0
KAM1 150033Z 31006KT 02/M01 A3014 RMK A01 T00241006  RH  080%=      5-min Rain = 0
KAM1 150034Z 31006KT 02/M01 A3014 RMK A01 T00241007  RH  080%=      5-min Rain = 0
KAM1 150035Z 31006KT 02/M01 A3014 RMK A01 T00241007  RH  080%=      5-min Rain = 0
KAM1 150036Z 30006KT 02/M01 A3014 RMK A01 T00241007  RH  080%=      5-min Rain = 0
KAM1 150037Z 30006KT 02/M01 A3014 RMK A01 T00231007  RH  080%=      5-min Rain = 0
KAM1 150038Z 30006KT 02/M01 A3014 RMK A01 T00231007  RH  081%=      5-min Rain = 0
KAM1 150039Z 30006KT 02/M01 A3014 RMK A01 T00231007  RH  081%=      5-min Rain = 0
KAM1 150040Z 31006KT 02/M01 A3014 RMK A01 T00231007  RH  081%=      5-min Rain = 0
KAM1 150041Z 31006KT 02/M01 A3014 RMK A01 T00221007  RH  081%=      5-min Rain = 0
KAM1 150042Z 31007KT 02/M01 A3014 RMK A01 T00231008  RH  080%=      5-min Rain = 0
KAM1 150043Z 30006KT 02/M01 A3014 RMK A01 T00231008  RH  080%=      5-min Rain = 0
KAM1 150044Z 30007KT 02/M01 A3014 RMK A01 T00231008  RH  080%=      5-min Rain = 0
KAM1 150045Z 30007KT 02/M01 A3014 RMK A01 T00231008  RH  080%=      5-min Rain = 0
KAM1 150046Z 30006KT 02/M01 A3014 RMK A01 T00231008  RH  080%=      5-min Rain = 0
KAM1 150047Z 30007KT 02/M01 A3014 RMK A01 T00231008  RH  080%=      5-min Rain = 0
KAM1 150048Z 30006KT 02/M01 A3014 RMK A01 T00231008  RH  080%=      5-min Rain = 0
KAM1 150049Z 30006KT 02/M01 A3014 RMK A01 T00231009  RH  080%=      5-min Rain = 0
KAM1 150050Z 30006KT 02/M01 A3014 RMK A01 T00221009  RH  080%=      5-min Rain = 0
KAM1 150051Z 30007KT 02/M01 A3015 RMK A01 T00221009  RH  080%=      5-min Rain = 0
KAM1 150052Z 30008KT 02/M01 A3015 RMK A01 T00211009  RH  080%=      5-min Rain = 0
KAM1 150053Z 30007KT 02/M01 A3015 RMK A01 T00211009  RH  081%=      5-min Rain = 0
KAM1 150054Z 30007KT 02/M01 A3015 RMK A01 T00211009  RH  081%=      5-min Rain = 0
KAM1 150055Z 30007KT 02/M01 A3015 RMK A01 T00211009  RH  081%=      5-min Rain = 0
KAM1 150056Z 30007KT 02/M01 A3015 RMK A01 T00201010  RH  081%=      5-min Rain = 0
KAM1 150057Z 30007KT 02/M01 A3015 RMK A01 T00201010  RH  081%=      5-min Rain = 0
KAM1 150058Z 30007KT 02/M01 A3015 RMK A01 T00201010  RH  081%=      5-min Rain = 0
KAM1 150059Z 30007KT 02/M01 A3015 RMK A01 T00191010  RH  081%=      5-min Rain = 0
KAM1 150100Z 30008KT 02/M01 A3015 RMK A01 T00191010  RH  081%=      5-min Rain = 0
KAM1 150101Z 30007KT 02/M01 A3015 RMK A01 T00181010  RH  081%=      5-min Rain = 0
KAM1 150102Z 30007KT 02/M01 A3015 RMK A01 T00181010  RH  081%=      5-min Rain = 0
KAM1 150103Z 30007KT 02/M01 A3015 RMK A01 T00181010  RH  081%=      5-min Rain = 0
KAM1 150104Z 29007KT 02/M01 A3015 RMK A01 T00181010  RH  082%=      5-min Rain = 0
KAM1 150105Z 30007KT 02/M01 A3015 RMK A01 T00181010  RH  082%=      5-min Rain = 0
KAM1 150106Z 30007KT 02/M01 A3015 RMK A01 T00181010  RH  082%=      5-min Rain = 0
KAM1 150107Z 29007KT 02/M01 A3015 RMK A01 T00181010  RH  082%=      5-min Rain = 0
KAM1 150108Z 29007KT 02/M01 A3015 RMK A01 T00181010  RH  082%=      5-min Rain = 0
KAM1 150109Z 29007KT 02/M01 A3015 RMK A01 T00181010  RH  082%=      5-min Rain = 0
KAM1 150110Z 29007KT 02/M01 A3015 RMK A01 T00181010  RH  082%=      5-min Rain = 0
KAM1 150111Z 29007KT 02/M01 A3015 RMK A01 T00181009  RH  082%=      5-min Rain = 0
KAM1 150112Z 29007KT 02/M01 A3015 RMK A01 T00181009  RH  082%=      5-min Rain = 0
KAM1 150113Z 29007KT 02/M01 A3015 RMK A01 T00181009  RH  082%=      5-min Rain = 0
KAM1 150114Z 29007KT 02/M01 A3015 RMK A01 T00191009  RH  082%=      5-min Rain = 0
KAM1 150115Z 29006KT 02/M01 A3016 RMK A01 T00201009  RH  081%=      5-min Rain = 0
KAM1 150116Z 29006KT 02/M01 A3016 RMK A01 T00201010  RH  081%=      5-min Rain = 0
KAM1 150117Z 28006KT 02/M01 A3016 RMK A01 T00201009  RH  081%=      5-min Rain = 0
KAM1 150118Z 29006KT 02/M01 A3016 RMK A01 T00201009  RH  081%=      5-min Rain = 0
KAM1 150119Z 29007KT 02/M01 A3016 RMK A01 T00201009  RH  081%=      5-min Rain = 0
KAM1 150120Z 29006KT 02/M01 A3016 RMK A01 T00201009  RH  081%=      5-min Rain = 0
KAM1 150121Z 28006KT 02/M01 A3016 RMK A01 T00201010  RH  081%=      5-min Rain = 0
KAM1 150122Z 28006KT 02/M01 A3016 RMK A01 T00201009  RH  081%=      5-min Rain = 0
KAM1 150123Z 29007KT 02/M01 A3016 RMK A01 T00201009  RH  081%=      5-min Rain = 0
KAM1 150124Z 29006KT 02/M01 A3016 RMK A01 T00191010  RH  081%=      5-min Rain = 0
KAM1 150125Z 28007KT 02/M01 A3016 RMK A01 T00191010  RH  081%=      5-min Rain = 0
KAM1 150126Z 28006KT 02/M01 A3016 RMK A01 T00191010  RH  081%=      5-min Rain = 0
KAM1 150127Z 28007KT 02/M01 A3016 RMK A01 T00191010  RH  081%=      5-min Rain = 0
KAM1 150128Z 28007KT 02/M01 A3016 RMK A01 T00191010  RH  081%=      5-min Rain = 0
KAM1 150129Z 28007KT 02/M01 A3016 RMK A01 T00191010  RH  081%=      5-min Rain = 0
KAM1 150130Z 28006KT 02/M01 A3016 RMK A01 T00191011  RH  081%=      5-min Rain = 0
KAM1 150131Z 28006KT 02/M01 A3016 RMK A01 T00191010  RH  081%=      5-min Rain = 0
KAM1 150132Z 28006KT 02/M01 A3016 RMK A01 T00191011  RH  081%=      5-min Rain = 0
KAM1 150133Z 28006KT 02/M01 A3016 RMK A01 T00191011  RH  081%=      5-min Rain = 0
KAM1 150134Z 28006KT 02/M01 A3016 RMK A01 T00181011  RH  081%=      5-min Rain = 0
KAM1 150135Z 28007KT 02/M01 A3016 RMK A01 T00181011  RH  081%=      5-min Rain = 0
KAM1 150136Z 28006KT 02/M01 A3016 RMK A01 T00181011  RH  081%=      5-min Rain = 0
KAM1 150137Z 28006KT 02/M01 A3016 RMK A01 T00181011  RH  081%=      5-min Rain = 0
KAM1 150138Z 29007KT 02/M01 A3016 RMK A01 T00171011  RH  081%=      5-min Rain = 0
KAM1 150139Z 29007KT 02/M01 A3016 RMK A01 T00171011  RH  081%=      5-min Rain = 0
KAM1 150140Z 29006KT 02/M01 A3016 RMK A01 T00171011  RH  081%=      5-min Rain = 0
KAM1 150141Z 28006KT 02/M01 A3016 RMK A01 T00181011  RH  081%=      5-min Rain = 0
KAM1 150142Z 29006KT 02/M01 A3016 RMK A01 T00171012  RH  081%=      5-min Rain = 0
KAM1 150143Z 28006KT 02/M01 A3016 RMK A01 T00171012  RH  081%=      5-min Rain = 0
KAM1 150144Z 28006KT 02/M01 A3016 RMK A01 T00161012  RH  081%=      5-min Rain = 0
KAM1 150145Z 28006KT 02/M01 A3016 RMK A01 T00161012  RH  082%=      5-min Rain = 0
KAM1 150146Z 28006KT 02/M01 A3016 RMK A01 T00161012  RH  082%=      5-min Rain = 0
KAM1 150147Z 28006KT 02/M01 A3016 RMK A01 T00161012  RH  082%=      5-min Rain = 0
KAM1 150148Z 28006KT 02/M01 A3016 RMK A01 T00161012  RH  082%=      5-min Rain = 0
KAM1 150149Z 29006KT 02/M01 A3016 RMK A01 T00151013  RH  082%=      5-min Rain = 0
KAM1 150150Z 29005KT 02/M01 A3016 RMK A01 T00151013  RH  082%=      5-min Rain = 0
KAM1 150151Z 29006KT 01/M01 A3016 RMK A01 T00141013  RH  082%=      5-min Rain = 0
KAM1 150152Z 29006KT 01/M01 A3016 RMK A01 T00141013  RH  082%=      5-min Rain = 0
KAM1 150153Z 29005KT 01/M01 A3016 RMK A01 T00141013  RH  082%=      5-min Rain = 0
KAM1 150154Z 29005KT 01/M01 A3016 RMK A01 T00131014  RH  082%=      5-min Rain = 0
KAM1 150155Z 29006KT 01/M01 A3016 RMK A01 T00131014  RH  082%=      5-min Rain = 0
KAM1 150156Z 29006KT 01/M01 A3016 RMK A01 T00121014  RH  083%=      5-min Rain = 0
KAM1 150157Z 29006KT 01/M01 A3016 RMK A01 T00121014  RH  083%=      5-min Rain = 0
KAM1 150158Z 29006KT 01/M01 A3016 RMK A01 T00111014  RH  083%=      5-min Rain = 0
KAM1 150159Z 29006KT 01/M01 A3016 RMK A01 T00111014  RH  083%=      5-min Rain = 0
KAM1 150200Z 29007KT 01/M01 A3016 RMK A01 T00111014  RH  084%=      5-min Rain = 0
KAM1 150201Z 29007KT 01/M01 A3016 RMK A01 T00101014  RH  084%=      5-min Rain = 0
KAM1 150202Z 29007KT 01/M01 A3016 RMK A01 T00101014  RH  084%=      5-min Rain = 0
KAM1 150203Z 29006KT 01/M01 A3016 RMK A01 T00101014  RH  084%=      5-min Rain = 0
KAM1 150204Z 29007KT 01/M01 A3016 RMK A01 T00101014  RH  084%=      5-min Rain = 0
KAM1 150205Z 29007KT 01/M01 A3016 RMK A01 T00101014  RH  084%=      5-min Rain = 0
KAM1 150206Z 29007KT 01/M01 A3016 RMK A01 T00101014  RH  084%=      5-min Rain = 0
KAM1 150207Z 29007KT 01/M02 A3016 RMK A01 T00101015  RH  084%=      5-min Rain = 0
KAM1 150208Z 29007KT 01/M02 A3016 RMK A01 T00091015  RH  084%=      5-min Rain = 0
KAM1 150209Z 29007KT 01/M02 A3016 RMK A01 T00091015  RH  084%=      5-min Rain = 0
KAM1 150210Z 29007KT 01/M02 A3016 RMK A01 T00091016  RH  084%=      5-min Rain = 0
KAM1 150211Z 29007KT 01/M02 A3016 RMK A01 T00091016  RH  084%=      5-min Rain = 0
KAM1 150212Z 29007KT 01/M02 A3016 RMK A01 T00091016  RH  084%=      5-min Rain = 0
KAM1 150213Z 30007KT 01/M02 A3016 RMK A01 T00081016  RH  084%=      5-min Rain = 0
KAM1 150214Z 30007KT 01/M02 A3016 RMK A01 T00081016  RH  084%=      5-min Rain = 0
KAM1 150215Z 30007KT 01/M02 A3016 RMK A01 T00081016  RH  084%=      5-min Rain = 0
KAM1 150216Z 30007KT 01/M02 A3016 RMK A01 T00081016  RH  084%=      5-min Rain = 0
KAM1 150217Z 30007KT 01/M02 A3016 RMK A01 T00081016  RH  084%=      5-min Rain = 0
KAM1 150218Z 30007KT 01/M02 A3016 RMK A01 T00081016  RH  084%=      5-min Rain = 0
KAM1 150219Z 30007KT 01/M02 A3016 RMK A01 T00071017  RH  084%=      5-min Rain = 0
KAM1 150220Z 31007KT 01/M02 A3016 RMK A01 T00071017  RH  084%=      5-min Rain = 0
KAM1 150221Z 31007KT 01/M02 A3016 RMK A01 T00071017  RH  084%=      5-min Rain = 0
KAM1 150222Z 31007KT 01/M02 A3016 RMK A01 T00071017  RH  084%=      5-min Rain = 0
KAM1 150223Z 31007KT 01/M02 A3016 RMK A01 T00061018  RH  084%=      5-min Rain = 0
KAM1 150224Z 31007KT 01/M02 A3016 RMK A01 T00061018  RH  084%=      5-min Rain = 0
KAM1 150225Z 31007KT 01/M02 A3016 RMK A01 T00071019  RH  083%=      5-min Rain = 0
KAM1 150226Z 31007KT 01/M02 A3016 RMK A01 T00071019  RH  083%=      5-min Rain = 0
KAM1 150227Z 31007KT 01/M02 A3016 RMK A01 T00071019  RH  083%=      5-min Rain = 0
KAM1 150228Z 32007KT 01/M02 A3016 RMK A01 T00071019  RH  083%=      5-min Rain = 0
KAM1 150229Z 32007KT 01/M02 A3016 RMK A01 T00061020  RH  082%=      5-min Rain = 0
KAM1 150230Z 32007KT 01/M02 A3016 RMK A01 T00061021  RH  082%=      5-min Rain = 0
KAM1 150231Z 32007KT 01/M02 A3016 RMK A01 T00061021  RH  082%=      5-min Rain = 0
KAM1 150232Z 32007KT 01/M02 A3016 RMK A01 T00051021  RH  082%=      5-min Rain = 0
KAM1 150233Z 32007KT 01/M02 A3016 RMK A01 T00051022  RH  082%=      5-min Rain = 0
KAM1 150234Z 32007KT 01/M02 A3016 RMK A01 T00051023  RH  082%=      5-min Rain = 0
KAM1 150235Z 32007KT 01/M02 A3016 RMK A01 T00051023  RH  082%=      5-min Rain = 0
KAM1 150236Z 32008KT 01/M02 A3016 RMK A01 T00051023  RH  082%=      5-min Rain = 0
KAM1 150237Z 32007KT 01/M02 A3016 RMK A01 T00051023  RH  082%=      5-min Rain = 0
KAM1 150238Z 32008KT 01/M02 A3016 RMK A01 T00051024  RH  081%=      5-min Rain = 0
KAM1 150239Z 32007KT 01/M02 A3016 RMK A01 T00051024  RH  081%=      5-min Rain = 0
KAM1 150240Z 33008KT 01/M02 A3016 RMK A01 T00051024  RH  081%=      5-min Rain = 0
KAM1 150241Z 33008KT 01/M02 A3016 RMK A01 T00051024  RH  081%=      5-min Rain = 0
KAM1 150242Z 33008KT 01/M02 A3016 RMK A01 T00051024  RH  081%=      5-min Rain = 0
KAM1 150243Z 33008KT 01/M03 A3016 RMK A01 T00051025  RH  080%=      5-min Rain = 0
KAM1 150244Z 33008KT 01/M03 A3016 RMK A01 T00051025  RH  080%=      5-min Rain = 0
KAM1 150245Z 33008KT 01/M03 A3016 RMK A01 T00061025  RH  079%=      5-min Rain = 0
KAM1 150246Z 33008KT 01/M03 A3016 RMK A01 T00081025  RH  078%=      5-min Rain = 0
KAM1 150247Z 33009KT 01/M03 A3016 RMK A01 T00101025  RH  077%=      5-min Rain = 0
KAM1 150248Z 33009KT 01/M03 A3016 RMK A01 T00121025  RH  076%=      5-min Rain = 0
KAM1 150249Z 33009KT 01/M03 A3016 RMK A01 T00131025  RH  075%=      5-min Rain = 0
KAM1 150250Z 34009KT 01/M03 A3016 RMK A01 T00141025  RH  075%=      5-min Rain = 0
KAM1 150251Z 34009KT 01/M03 A3016 RMK A01 T00141026  RH  075%=      5-min Rain = 0
KAM1 150252Z 34008KT 02/M03 A3017 RMK A01 T00151026  RH  074%=      5-min Rain = 0
KAM1 150253Z 34008KT 02/M03 A3017 RMK A01 T00151027  RH  074%=      5-min Rain = 0
KAM1 150254Z 34008KT 02/M03 A3017 RMK A01 T00151027  RH  074%=      5-min Rain = 0
KAM1 150255Z 34009KT 02/M03 A3017 RMK A01 T00151027  RH  073%=      5-min Rain = 0
KAM1 150256Z 34009KT 02/M03 A3017 RMK A01 T00151028  RH  073%=      5-min Rain = 0
KAM1 150257Z 34009KT 02/M03 A3017 RMK A01 T00161028  RH  073%=      5-min Rain = 0
KAM1 150258Z 34009KT 02/M03 A3017 RMK A01 T00171028  RH  072%=      5-min Rain = 0
KAM1 150259Z 34009KT 02/M03 A3017 RMK A01 T00171028  RH  072%=      5-min Rain = 0
KAM1 150300Z 34008KT 02/M03 A3017 RMK A01 T00171029  RH  072%=      5-min Rain = 0
KAM1 150301Z 34008KT 02/M03 A3017 RMK A01 T00171028  RH  072%=      5-min Rain = 0
KAM1 150302Z 34008KT 02/M03 A3017 RMK A01 T00161029  RH  072%=      5-min Rain = 0
KAM1 150303Z 34008KT 02/M03 A3017 RMK A01 T00161029  RH  072%=      5-min Rain = 0
KAM1 150304Z 34008KT 02/M03 A3017 RMK A01 T00151030  RH  072%=      5-min Rain = 0
KAM1 150305Z 34008KT 02/M03 A3017 RMK A01 T00151030  RH  072%=      5-min Rain = 0
KAM1 150306Z 34008KT 02/M03 A3017 RMK A01 T00151030  RH  072%=      5-min Rain = 0
KAM1 150307Z 34008KT 02/M03 A3017 RMK A01 T00151030  RH  072%=      5-min Rain = 0
KAM1 150308Z 34008KT 02/M03 A3017 RMK A01 T00151030  RH  072%=      5-min Rain = 0
KAM1 150309Z 34008KT 02/M03 A3017 RMK A01 T00151030  RH  072%=      5-min Rain = 0
KAM1 150310Z 34008KT 02/M03 A3017 RMK A01 T00151031  RH  072%=      5-min Rain = 0
KAM1 150311Z 34008KT 02/M03 A3017 RMK A01 T00151031  RH  072%=      5-min Rain = 0
KAM1 150312Z 34008KT 02/M03 A3017 RMK A01 T00151031  RH  072%=      5-min Rain = 0
KAM1 150313Z 34008KT 02/M03 A3017 RMK A01 T00151031  RH  071%=      5-min Rain = 0
KAM1 150314Z 34008KT 01/M03 A3017 RMK A01 T00141032  RH  071%=      5-min Rain = 0
KAM1 150315Z 34008KT 02/M03 A3017 RMK A01 T00151031  RH  071%=      5-min Rain = 0
KAM1 150316Z 34008KT 02/M03 A3017 RMK A01 T00151031  RH  071%=      5-min Rain = 0
KAM1 150317Z 34008KT 02/M03 A3017 RMK A01 T00151032  RH  071%=      5-min Rain = 0
KAM1 150318Z 34008KT 01/M03 A3017 RMK A01 T00141032  RH  071%=      5-min Rain = 0
KAM1 150319Z 34008KT 01/M03 A3017 RMK A01 T00141032  RH  071%=      5-min Rain = 0
KAM1 150320Z 34008KT 01/M03 A3017 RMK A01 T00141032  RH  071%=      5-min Rain = 0
KAM1 150321Z 34008KT 01/M03 A3017 RMK A01 T00141032  RH  071%=      5-min Rain = 0
KAM1 150322Z 34008KT 01/M03 A3017 RMK A01 T00141033  RH  071%=      5-min Rain = 0
KAM1 150323Z 34008KT 01/M03 A3017 RMK A01 T00131033  RH  071%=      5-min Rain = 0
KAM1 150324Z 34008KT 01/M03 A3017 RMK A01 T00131033  RH  071%=      5-min Rain = 0
KAM1 150325Z 34008KT 01/M03 A3017 RMK A01 T00131032  RH  072%=      5-min Rain = 0
KAM1 150326Z 34008KT 01/M03 A3017 RMK A01 T00131033  RH  072%=      5-min Rain = 0
KAM1 150327Z 34008KT 01/M03 A3017 RMK A01 T00121033  RH  072%=      5-min Rain = 0
KAM1 150328Z 34007KT 01/M03 A3017 RMK A01 T00111034  RH  072%=      5-min Rain = 0
KAM1 150329Z 34007KT 01/M03 A3017 RMK A01 T00111033  RH  072%=      5-min Rain = 0
KAM1 150330Z 33007KT 01/M03 A3017 RMK A01 T00101034  RH  072%=      5-min Rain = 0
KAM1 150331Z 33007KT 01/M03 A3017 RMK A01 T00101034  RH  073%=      5-min Rain = 0
KAM1 150332Z 33006KT 01/M04 A3017 RMK A01 T00091035  RH  073%=      5-min Rain = 0
KAM1 150333Z 33007KT 01/M04 A3017 RMK A01 T00081035  RH  073%=      5-min Rain = 0
KAM1 150334Z 33007KT 01/M04 A3017 RMK A01 T00081035  RH  073%=      5-min Rain = 0
KAM1 150335Z 33007KT 01/M04 A3017 RMK A01 T00071035  RH  073%=      5-min Rain = 0
KAM1 150336Z 33007KT 01/M04 A3017 RMK A01 T00071036  RH  073%=      5-min Rain = 0
KAM1 150337Z 33007KT 01/M04 A3017 RMK A01 T00061036  RH  073%=      5-min Rain = 0
KAM1 150338Z 33007KT 01/M04 A3017 RMK A01 T00061036  RH  074%=      5-min Rain = 0
KAM1 150339Z 33007KT 01/M04 A3017 RMK A01 T00061036  RH  074%=      5-min Rain = 0
KAM1 150340Z 33007KT 01/M04 A3017 RMK A01 T00051036  RH  074%=      5-min Rain = 0
KAM1 150341Z 33007KT 01/M04 A3017 RMK A01 T00051037  RH  074%=      5-min Rain = 0
KAM1 150342Z 33007KT 01/M04 A3017 RMK A01 T00051036  RH  074%=      5-min Rain = 0
KAM1 150343Z 33007KT 01/M04 A3017 RMK A01 T00051037  RH  074%=      5-min Rain = 0
KAM1 150344Z 33007KT 01/M04 A3017 RMK A01 T00051037  RH  074%=      5-min Rain = 0
KAM1 150345Z 33007KT 00/M04 A3017 RMK A01 T00041038  RH  074%=      5-min Rain = 0
KAM1 150346Z 33007KT 00/M04 A3018 RMK A01 T00031037  RH  074%=      5-min Rain = 0
KAM1 150347Z 33007KT 00/M04 A3018 RMK A01 T00031038  RH  074%=      5-min Rain = 0
KAM1 150348Z 33007KT 00/M04 A3018 RMK A01 T00021038  RH  074%=      5-min Rain = 0
KAM1 150349Z 33007KT 00/M04 A3018 RMK A01 T00021038  RH  075%=      5-min Rain = 0
KAM1 150350Z 33007KT 00/M04 A3018 RMK A01 T00011038  RH  075%=      5-min Rain = 0
KAM1 150351Z 33006KT 00/M04 A3018 RMK A01 T00011038  RH  075%=      5-min Rain = 0
KAM1 150352Z 32006KT 00/04 A3018 RMK A01 T00000-39  RH  075%=      5-min Rain = 0
KAM1 150353Z 32007KT M00/M04 A3018 RMK A01 T10011039  RH  075%=      5-min Rain = 0
KAM1 150354Z 32007KT M00/M04 A3018 RMK A01 T10021040  RH  076%=      5-min Rain = 0
KAM1 150355Z 32007KT M00/M04 A3018 RMK A01 T10021039  RH  076%=      5-min Rain = 0
KAM1 150356Z 32007KT M00/M04 A3018 RMK A01 T10031039  RH  077%=      5-min Rain = 0
KAM1 150357Z 32007KT M00/M04 A3018 RMK A01 T10041039  RH  077%=      5-min Rain = 0
KAM1 150358Z 32007KT M00/M04 A3018 RMK A01 T10041039  RH  077%=      5-min Rain = 0
KAM1 150359Z 32007KT M01/M04 A3018 RMK A01 T10051039  RH  078%=      5-min Rain = 0
KAM1 150400Z 32007KT M01/M04 A3018 RMK A01 T10051039  RH  078%=      5-min Rain = 0
KAM1 150401Z 32007KT M01/M04 A3018 RMK A01 T10061039  RH  078%=      5-min Rain = 0
KAM1 150402Z 32007KT M01/M04 A3018 RMK A01 T10061039  RH  078%=      5-min Rain = 0
KAM1 150403Z 32007KT M01/M04 A3018 RMK A01 T10061039  RH  078%=      5-min Rain = 0
KAM1 150404Z 32007KT M01/M04 A3018 RMK A01 T10061039  RH  079%=      5-min Rain = 0
KAM1 150405Z 32007KT M01/M04 A3018 RMK A01 T10071039  RH  079%=      5-min Rain = 0
KAM1 150406Z 32007KT M01/M04 A3018 RMK A01 T10071039  RH  079%=      5-min Rain = 0
KAM1 150407Z 32007KT M01/M04 A3018 RMK A01 T10071039  RH  079%=      5-min Rain = 0
KAM1 150408Z 32007KT M01/M04 A3018 RMK A01 T10071039  RH  079%=      5-min Rain = 0
KAM1 150409Z 32008KT M01/M04 A3018 RMK A01 T10071039  RH  079%=      5-min Rain = 0
KAM1 150410Z 32008KT M01/M04 A3018 RMK A01 T10071038  RH  079%=      5-min Rain = 0
KAM1 150411Z 32008KT M01/M04 A3018 RMK A01 T10061038  RH  079%=      5-min Rain = 0
KAM1 150412Z 32008KT M01/M04 A3018 RMK A01 T10061038  RH  079%=      5-min Rain = 0
KAM1 150413Z 32008KT M01/M04 A3018 RMK A01 T10061038  RH  079%=      5-min Rain = 0
KAM1 150414Z 32008KT M01/M04 A3018 RMK A01 T10061038  RH  079%=      5-min Rain = 0
KAM1 150415Z 32008KT M01/M04 A3018 RMK A01 T10051038  RH  079%=      5-min Rain = 0
KAM1 150416Z 32008KT M01/M04 A3018 RMK A01 T10061038  RH  079%=      5-min Rain = 0
KAM1 150417Z 32008KT M01/M04 A3018 RMK A01 T10051038  RH  079%=      5-min Rain = 0
KAM1 150418Z 32008KT M01/M04 A3018 RMK A01 T10051037  RH  079%=      5-min Rain = 0
KAM1 150419Z 32008KT M01/M04 A3018 RMK A01 T10051037  RH  079%=      5-min Rain = 0
KAM1 150420Z 32008KT M00/M04 A3018 RMK A01 T10041037  RH  079%=      5-min Rain = 0
KAM1 150421Z 32008KT M00/M04 A3018 RMK A01 T10041037  RH  078%=      5-min Rain = 0
KAM1 150422Z 32008KT M00/M04 A3018 RMK A01 T10041037  RH  078%=      5-min Rain = 0
KAM1 150423Z 32007KT M00/M04 A3018 RMK A01 T10041037  RH  078%=      5-min Rain = 0
KAM1 150424Z 32007KT M00/M04 A3018 RMK A01 T10041037  RH  078%=      5-min Rain = 0
KAM1 150425Z 32007KT M00/M04 A3018 RMK A01 T10041038  RH  078%=      5-min Rain = 0
KAM1 150426Z 32007KT M01/M04 A3018 RMK A01 T10051038  RH  078%=      5-min Rain = 0
KAM1 150427Z 32007KT M01/M04 A3018 RMK A01 T10051039  RH  078%=      5-min Rain = 0
KAM1 150428Z 32007KT M01/M04 A3018 RMK A01 T10051039  RH  078%=      5-min Rain = 0
KAM1 150429Z 32007KT M01/M04 A3018 RMK A01 T10051039  RH  078%=      5-min Rain = 0
KAM1 150430Z 32007KT M01/M04 A3018 RMK A01 T10051039  RH  078%=      5-min Rain = 0
KAM1 150431Z 32007KT M01/M04 A3018 RMK A01 T10061039  RH  078%=      5-min Rain = 0
KAM1 150432Z 31007KT M01/M04 A3018 RMK A01 T10061040  RH  078%=      5-min Rain = 0
KAM1 150433Z 31007KT M01/M04 A3018 RMK A01 T10081041  RH  078%=      5-min Rain = 0
KAM1 150434Z 31007KT M01/M04 A3018 RMK A01 T10091042  RH  078%=      5-min Rain = 0
KAM1 150435Z 32007KT M01/M04 A3018 RMK A01 T10101042  RH  079%=      5-min Rain = 0
KAM1 150436Z 31008KT M01/M04 A3018 RMK A01 T10111043  RH  079%=      5-min Rain = 0
KAM1 150437Z 31008KT M01/M04 A3018 RMK A01 T10121043  RH  079%=      5-min Rain = 0
KAM1 150438Z 31008KT M01/M04 A3018 RMK A01 T10121043  RH  079%=      5-min Rain = 0
KAM1 150439Z 31008KT M01/M04 A3018 RMK A01 T10121043  RH  080%=      5-min Rain = 0
KAM1 150440Z 31008KT M01/M04 A3018 RMK A01 T10131043  RH  080%=      5-min Rain = 0
KAM1 150441Z 31007KT M01/M04 A3018 RMK A01 T10131043  RH  080%=      5-min Rain = 0
KAM1 150442Z 31007KT M01/M04 A3018 RMK A01 T10121042  RH  080%=      5-min Rain = 0
KAM1 150443Z 31007KT M01/M04 A3018 RMK A01 T10131043  RH  080%=      5-min Rain = 0
KAM1 150444Z 31007KT M01/M04 A3018 RMK A01 T10131043  RH  080%=      5-min Rain = 0
KAM1 150445Z 31007KT M01/M04 A3018 RMK A01 T10141044  RH  080%=      5-min Rain = 0
KAM1 150446Z 31006KT M02/M04 A3018 RMK A01 T10151044  RH  081%=      5-min Rain = 0
KAM1 150447Z 31006KT M02/M04 A3018 RMK A01 T10151044  RH  081%=      5-min Rain = 0
KAM1 150448Z 31007KT M02/M04 A3018 RMK A01 T10161044  RH  081%=      5-min Rain = 0
KAM1 150449Z 31007KT M02/M04 A3018 RMK A01 T10161043  RH  081%=      5-min Rain = 0
KAM1 150450Z 31007KT M02/M04 A3018 RMK A01 T10161044  RH  081%=      5-min Rain = 0
KAM1 150451Z 31007KT M02/M04 A3018 RMK A01 T10161043  RH  082%=      5-min Rain = 0
KAM1 150452Z 31008KT M02/M04 A3018 RMK A01 T10161043  RH  082%=      5-min Rain = 0
KAM1 150453Z 31008KT M02/M04 A3018 RMK A01 T10161043  RH  082%=      5-min Rain = 0
KAM1 150454Z 31008KT M02/M04 A3018 RMK A01 T10161043  RH  082%=      5-min Rain = 0
KAM1 150455Z 31008KT M02/M04 A3018 RMK A01 T10151042  RH  082%=      5-min Rain = 0
KAM1 150456Z 31008KT M01/M04 A3018 RMK A01 T10141042  RH  081%=      5-min Rain = 0
KAM1 150457Z 31008KT M01/M04 A3018 RMK A01 T10131042  RH  081%=      5-min Rain = 0
KAM1 150458Z 31008KT M01/M04 A3018 RMK A01 T10131042  RH  081%=      5-min Rain = 0
KAM1 150459Z 31008KT M01/M04 A3018 RMK A01 T10131043  RH  080%=      5-min Rain = 0
KAM1 150500Z 31008KT M01/M04 A3018 RMK A01 T10131042  RH  080%=      5-min Rain = 0
KAM1 150501Z 31008KT M01/M04 A3018 RMK A01 T10131043  RH  080%=      5-min Rain = 0
KAM1 150502Z 31007KT M01/M04 A3018 RMK A01 T10131043  RH  080%=      5-min Rain = 0
KAM1 150503Z 31007KT M01/M04 A3018 RMK A01 T10131043  RH  080%=      5-min Rain = 0
KAM1 150504Z 31007KT M01/M04 A3018 RMK A01 T10131043  RH  080%=      5-min Rain = 0
KAM1 150505Z 31007KT M01/M04 A3018 RMK A01 T10141044  RH  080%=      5-min Rain = 0
KAM1 150506Z 31007KT M01/M04 A3018 RMK A01 T10141044  RH  080%=      5-min Rain = 0
KAM1 150507Z 30007KT M02/M05 A3018 RMK A01 T10151045  RH  080%=      5-min Rain = 0
KAM1 150508Z 30007KT M02/M05 A3018 RMK A01 T10161045  RH  081%=      5-min Rain = 0
KAM1 150509Z 30007KT M02/M05 A3018 RMK A01 T10171045  RH  081%=      5-min Rain = 0
KAM1 150510Z 30007KT M02/M05 A3018 RMK A01 T10181045  RH  082%=      5-min Rain = 0
KAM1 150511Z 30008KT M02/M05 A3018 RMK A01 T10181045  RH  082%=      5-min Rain = 0
KAM1 150512Z 30008KT M02/M04 A3018 RMK A01 T10181044  RH  082%=      5-min Rain = 0
KAM1 150513Z 30008KT M02/M05 A3018 RMK A01 T10191045  RH  082%=      5-min Rain = 0
KAM1 150514Z 30007KT M02/M05 A3018 RMK A01 T10191045  RH  082%=      5-min Rain = 0
KAM1 150515Z 30007KT M02/M05 A3018 RMK A01 T10191045  RH  082%=      5-min Rain = 0
KAM1 150516Z 30007KT M02/M05 A3018 RMK A01 T10191045  RH  083%=      5-min Rain = 0
KAM1 150517Z 30007KT M02/M04 A3018 RMK A01 T10181044  RH  082%=      5-min Rain = 0
KAM1 150518Z 30007KT M02/M04 A3018 RMK A01 T10181044  RH  082%=      5-min Rain = 0
KAM1 150519Z 30007KT M02/M05 A3019 RMK A01 T10191045  RH  083%=      5-min Rain = 0
KAM1 150520Z 30007KT M02/M04 A3019 RMK A01 T10191044  RH  083%=      5-min Rain = 0
KAM1 150521Z 30007KT M02/M04 A3019 RMK A01 T10191044  RH  083%=      5-min Rain = 0
KAM1 150522Z 30007KT M02/M04 A3019 RMK A01 T10191044  RH  083%=      5-min Rain = 0
KAM1 150523Z 30007KT M02/M04 A3019 RMK A01 T10191044  RH  083%=      5-min Rain = 0
KAM1 150524Z 30007KT M02/M05 A3019 RMK A01 T10191045  RH  083%=      5-min Rain = 0
KAM1 150525Z 30007KT M02/M05 A3019 RMK A01 T10201045  RH  083%=      5-min Rain = 0
KAM1 150526Z 30007KT M02/M05 A3019 RMK A01 T10201045  RH  083%=      5-min Rain = 0
KAM1 150527Z 30007KT M02/M05 A3019 RMK A01 T10211045  RH  083%=      5-min Rain = 0
KAM1 150528Z 30007KT M02/M05 A3019 RMK A01 T10211045  RH  084%=      5-min Rain = 0
KAM1 150529Z 31007KT M02/M05 A3019 RMK A01 T10221046  RH  084%=      5-min Rain = 0
KAM1 150530Z 31007KT M02/M05 A3019 RMK A01 T10221046  RH  084%=      5-min Rain = 0
KAM1 150531Z 31007KT M02/M05 A3019 RMK A01 T10221045  RH  084%=      5-min Rain = 0
KAM1 150532Z 30007KT M02/M05 A3019 RMK A01 T10221045  RH  084%=      5-min Rain = 0
KAM1 150533Z 30008KT M02/M05 A3019 RMK A01 T10221045  RH  084%=      5-min Rain = 0
KAM1 150534Z 30007KT M02/M05 A3019 RMK A01 T10231046  RH  084%=      5-min Rain = 0
KAM1 150535Z 30007KT M02/M05 A3019 RMK A01 T10231046  RH  084%=      5-min Rain = 0
KAM1 150536Z 31007KT M02/M05 A3019 RMK A01 T10231046  RH  084%=      5-min Rain = 0
KAM1 150537Z 31007KT M02/M05 A3019 RMK A01 T10241046  RH  084%=      5-min Rain = 0
KAM1 150538Z 31008KT M02/M05 A3019 RMK A01 T10241047  RH  085%=      5-min Rain = 0
KAM1 150539Z 30008KT M03/M05 A3019 RMK A01 T10251047  RH  085%=      5-min Rain = 0
KAM1 150540Z 30008KT M03/M05 A3019 RMK A01 T10251047  RH  085%=      5-min Rain = 0
KAM1 150541Z 30008KT M03/M05 A3019 RMK A01 T10251047  RH  085%=      5-min Rain = 0
KAM1 150542Z 30007KT M03/M05 A3019 RMK A01 T10251047  RH  085%=      5-min Rain = 0
KAM1 150543Z 31007KT M03/M05 A3019 RMK A01 T10251047  RH  085%=      5-min Rain = 0
KAM1 150544Z 31007KT M02/M05 A3019 RMK A01 T10241047  RH  085%=      5-min Rain = 0
KAM1 150545Z 31007KT M02/M05 A3019 RMK A01 T10241047  RH  084%=      5-min Rain = 0
KAM1 150546Z 31008KT M02/M05 A3019 RMK A01 T10241047  RH  084%=      5-min Rain = 0
KAM1 150547Z 31007KT M02/M05 A3019 RMK A01 T10241047  RH  084%=      5-min Rain = 0
KAM1 150548Z 31007KT M02/M05 A3019 RMK A01 T10241047  RH  084%=      5-min Rain = 0
KAM1 150549Z 31008KT M02/M05 A3019 RMK A01 T10241047  RH  084%=      5-min Rain = 0
KAM1 150550Z 30008KT M02/M05 A3019 RMK A01 T10241047  RH  084%=      5-min Rain = 0
KAM1 150551Z 30008KT M02/M05 A3019 RMK A01 T10241047  RH  084%=      5-min Rain = 0
KAM1 150552Z 30008KT M03/M05 A3019 RMK A01 T10251048  RH  084%=      5-min Rain = 0
KAM1 150553Z 30007KT M03/M05 A3019 RMK A01 T10251048  RH  084%=      5-min Rain = 0
KAM1 150554Z 30007KT M03/M05 A3019 RMK A01 T10251048  RH  084%=      5-min Rain = 0
KAM1 150555Z 30007KT M03/M05 A3019 RMK A01 T10251048  RH  084%=      5-min Rain = 0
KAM1 150556Z 30007KT M03/M05 A3019 RMK A01 T10251048  RH  084%=      5-min Rain = 0
KAM1 150557Z 30007KT M03/M05 A3019 RMK A01 T10251049  RH  084%=      5-min Rain = 0
KAM1 150558Z 30007KT M03/M05 A3019 RMK A01 T10261049  RH  084%=      5-min Rain = 0
KAM1 150559Z 30007KT M03/M05 A3019 RMK A01 T10261050  RH  084%=      5-min Rain = 0

Page generated in 0.1619 seconds.